GFSMA_sfc_wetblb_066.txt.gz
Wetbulb
66.77 67.87 67.22 65.92 65.50 65.94 66.00 66.21 66.13 65.17 65.28 63.69 61.95 61.66 60.83 60.33 59.31 59.88 60.34 62.24 64.79 62.62 61.09 60.11 58.63 57.73 57.63 57.33 56.50 56.62 56.41 56.17 56.06 56.13 56.36 56.15 56.30 56.53 56.87 57.13 57.19 57.28 57.69
67.07 67.79 67.59 67.10 65.89 65.71 65.89 66.04 65.54 64.27 63.74 62.06 59.88 58.62 58.55 58.09 57.91 58.97 60.86 62.88 62.54 61.68 59.92 58.84 57.32 56.46 56.64 56.05 55.73 55.33 54.90 54.30 54.38 54.57 55.05 54.99 55.09 55.12 55.36 55.77 56.11 56.24 56.55
67.90 67.66 67.54 67.33 67.22 65.63 65.36 65.47 65.37 63.80 61.51 60.04 58.47 56.68 56.64 56.70 57.33 58.09 59.67 61.42 60.47 59.28 58.94 57.31 55.98 55.19 54.99 54.97 54.18 53.88 53.44 52.42 52.55 52.56 53.00 53.41 53.63 54.12 54.48 54.70 55.12 55.41 55.71
67.73 67.33 66.84 66.81 67.54 66.95 65.31 64.53 63.99 61.53 60.11 57.78 56.55 55.18 54.96 55.62 56.31 56.88 57.85 58.31 58.42 57.12 56.53 55.84 54.74 53.08 52.64 52.70 52.88 52.16 51.77 51.40 51.27 51.56 51.78 52.36 52.68 53.15 53.84 54.32 54.51 54.87 55.44
67.15 66.93 66.54 66.66 67.25 66.53 65.75 64.29 63.10 62.06 59.43 57.36 55.67 54.37 53.51 53.24 54.41 54.86 55.79 56.23 56.32 55.47 54.97 53.49 53.21 51.10 50.36 50.50 50.18 50.23 50.42 50.31 50.10 50.18 51.06 51.65 52.26 53.00 53.44 54.04 54.48 55.01 55.27
67.03 66.69 66.25 66.09 66.44 65.91 65.11 64.78 61.75 60.79 60.19 58.59 53.59 52.08 52.65 52.36 52.25 53.75 54.42 54.26 54.22 53.66 53.20 52.49 50.75 49.27 48.40 48.35 48.13 48.43 49.04 49.81 49.84 50.01 50.55 51.03 51.92 52.75 53.64 54.41 54.65 55.26 55.68
66.85 66.51 66.10 65.90 65.69 65.20 65.09 64.67 61.91 58.76 56.03 57.03 52.85 51.61 51.04 51.08 50.41 51.95 53.53 53.17 52.28 51.73 51.44 51.27 49.34 48.35 47.04 46.05 45.37 46.18 47.11 47.65 48.69 49.49 50.45 51.18 51.93 52.68 53.72 54.47 54.79 54.96 55.58
67.27 66.29 65.97 65.75 65.17 64.19 64.68 64.36 61.60 57.34 57.40 54.37 54.12 54.57 50.86 49.39 49.28 49.83 51.65 51.50 51.31 50.87 49.48 48.91 48.03 47.26 47.13 46.89 46.52 43.85 44.67 46.26 48.22 49.52 50.46 51.29 52.20 53.02 53.76 53.97 54.46 54.92 55.15
67.67 66.83 66.26 66.45 65.60 64.46 63.73 63.83 61.60 58.09 55.16 52.65 54.79 55.59 50.57 50.51 49.09 49.14 48.49 49.80 49.30 49.00 48.63 47.62 46.25 46.05 45.98 45.97 44.50 44.96 44.14 44.34 46.21 48.09 49.42 50.47 51.16 51.96 52.58 53.10 53.66 54.27 54.41
65.34 66.65 66.43 66.26 65.47 64.71 63.47 63.11 61.12 59.10 58.20 52.05 50.69 49.49 49.46 51.49 48.63 45.29 45.94 47.36 47.91 47.06 46.96 45.71 44.92 44.41 44.17 45.11 42.92 42.80 42.33 43.04 45.20 47.11 48.54 49.64 50.59 51.35 52.09 52.61 53.10 53.59 53.70
64.99 64.29 64.79 65.21 64.74 63.97 63.21 62.37 59.40 57.97 58.17 56.34 52.11 48.85 48.38 47.18 46.30 45.68 47.48 42.31 43.32 44.29 45.11 44.48 44.03 43.58 43.06 43.25 43.46 42.01 40.76 42.02 44.13 45.81 47.54 48.85 49.82 50.56 51.05 51.62 51.98 52.33 52.35
64.21 63.45 62.92 63.32 63.68 63.17 62.13 62.14 60.22 58.04 56.35 57.08 53.08 50.55 48.09 45.96 43.33 44.47 42.70 42.90 42.66 41.36 41.59 40.33 38.93 40.15 41.30 42.23 40.48 39.27 39.33 40.59 42.29 44.23 46.23 47.89 48.37 48.73 49.07 49.48 49.74 49.96 50.16
62.75 62.17 62.36 61.88 61.66 61.70 61.38 61.05 59.11 57.56 56.68 55.93 53.30 50.31 48.32 45.30 44.21 43.74 43.03 39.41 40.12 37.94 38.37 39.20 38.58 39.70 40.19 39.40 40.41 38.32 39.05 39.74 41.07 42.61 45.02 47.09 46.47 45.79 45.76 46.58 47.56 47.98 48.38
63.27 62.19 61.70 61.43 60.59 60.23 59.21 58.93 58.16 57.57 56.36 55.89 53.03 48.86 42.51 40.37 40.60 39.56 39.77 36.93 34.61 34.73 34.53 34.90 36.59 37.15 36.95 36.92 38.05 37.67 38.39 39.52 39.75 41.33 43.13 43.87 43.49 43.24 43.42 44.21 44.96 45.51 46.05
62.03 62.20 60.69 59.51 58.76 57.26 56.33 55.50 55.07 54.86 53.98 52.16 45.45 41.71 39.64 38.08 39.22 37.69 38.19 39.35 38.59 32.47 32.15 33.08 33.25 35.21 35.54 35.99 36.50 37.04 37.58 39.26 39.71 40.27 40.97 41.22 41.38 41.56 41.78 42.34 42.84 43.42 44.03
59.08 57.74 58.08 56.68 55.05 54.02 53.63 52.85 51.09 51.25 46.74 43.92 40.07 38.55 37.42 36.33 36.84 36.45 36.88 37.07 36.92 34.13 33.72 32.81 32.69 33.42 33.81 34.85 36.21 36.79 38.06 38.32 38.70 39.43 39.92 40.02 40.09 40.38 40.68 41.00 41.67 42.38 43.04
54.12 54.34 54.10 52.47 51.71 50.31 49.99 47.88 43.70 41.85 39.99 37.83 39.46 37.02 35.15 36.56 35.73 35.26 35.31 34.97 33.80 34.21 32.48 33.39 32.87 33.39 32.84 33.93 36.87 37.51 37.13 37.13 37.99 38.64 39.17 39.29 39.10 39.38 40.00 40.53 40.89 41.36 41.90
51.69 51.39 50.29 49.27 47.75 45.82 43.63 40.48 38.95 37.85 36.48 35.73 36.17 35.22 35.01 36.56 35.38 35.17 35.05 33.28 33.25 32.62 31.91 30.56 31.95 31.98 33.06 34.38 34.47 34.68 35.90 36.74 36.44 37.40 38.16 38.07 38.70 39.06 39.32 39.60 39.65 40.13 40.54
45.95 45.93 44.89 42.48 41.16 39.50 38.66 37.72 36.92 36.72 36.51 36.31 36.49 35.97 35.17 35.34 34.33 33.93 33.24 32.90 32.60 32.80 31.56 30.98 30.58 33.25 33.09 34.05 34.33 35.51 35.38 35.53 36.19 36.70 37.17 37.23 37.83 38.11 38.40 38.83 39.12 39.40 39.34
39.61 39.03 38.74 38.24 37.78 37.50 37.08 36.66 36.73 36.84 37.43 36.76 36.00 35.76 35.17 34.58 33.55 32.99 33.43 32.59 32.54 32.37 33.66 32.79 32.82 32.85 33.49 34.52 34.38 32.70 32.64 34.11 33.41 35.01 36.19 36.74 36.82 36.92 37.19 37.57 37.72 37.50 37.54
37.70 37.74 37.27 37.36 37.61 37.48 37.52 37.14 37.77 37.77 36.05 34.28 33.70 33.63 33.36 34.29 34.83 34.11 33.88 34.29 33.63 32.63 32.45 32.11 31.79 32.62 32.62 32.58 31.66 32.55 30.72 32.24 33.60 34.70 34.65 35.23 35.46 35.56 36.06 36.98 36.60 36.50 36.59
38.31 38.20 38.08 38.39 38.55 39.29 40.44 39.80 37.25 34.86 33.56 32.08 30.65 31.05 32.93 34.50 34.67 34.00 33.57 34.17 34.61 32.87 32.46 32.40 31.84 30.75 31.86 32.50 32.50 31.17 30.70 28.93 26.91 34.78 33.34 32.57 35.07 33.75 35.16 35.74 36.58 36.48 36.78
35.26 35.11 36.18 37.26 37.19 37.97 39.97 38.67 36.24 32.59 31.69 31.25 30.48 31.19 31.67 32.78 31.67 31.63 32.09 33.00 33.52 33.80 34.09 33.70 31.47 31.48 30.90 31.76 31.51 30.35 29.52 29.23 28.32 32.81 32.47 29.74 33.54 31.98 34.65 34.95 36.19 36.20 36.27
32.99 32.63 32.04 32.06 32.21 34.16 36.77 35.69 33.61 31.25 31.20 31.42 32.06 31.46 31.59 31.44 31.07 32.31 32.98 33.50 33.51 33.77 33.58 32.93 32.47 32.32 32.86 33.51 32.58 32.65 31.56 31.26 32.17 33.10 33.46 28.25 32.23 31.02 33.35 34.37 35.77 35.70 35.81
32.82 32.44 32.95 32.99 33.60 34.07 34.55 33.45 32.28 31.44 30.61 30.77 30.63 31.35 31.51 31.33 31.51 33.77 33.52 32.33 31.88 31.60 32.42 31.77 32.61 33.42 33.72 33.47 33.00 31.48 29.70 29.06 26.77 28.68 32.05 29.59 30.68 30.49 31.82 31.98 33.48 34.59 34.44
32.88 33.96 33.15 34.60 35.38 34.98 35.58 33.60 32.33 32.18 31.37 31.37 31.62 31.40 30.51 32.04 32.65 32.92 32.01 30.71 28.31 28.89 30.67 31.36 31.82 31.90 32.06 31.94 31.17 31.07 30.42 26.44 25.44 25.26 32.12 27.42 28.41 28.07 25.71 30.72 32.15 32.96 32.61

GFSMA_sfc_wetblb_072.txt.gz
Wetbulb
61.28 59.83 60.77 61.55 61.74 62.34 61.08 61.47 61.61 62.28 61.15 60.81 59.55 59.41 58.94 57.77 56.78 55.79 55.71 63.61 65.45 64.31 62.71 61.74 60.65 60.16 59.69 58.90 58.75 57.89 57.61 57.43 57.68 57.54 57.26 57.24 57.06 57.03 57.42 57.58 57.53 57.74 58.13
62.34 61.97 60.76 60.39 61.05 61.28 60.74 61.60 61.32 60.90 60.67 60.30 58.28 58.13 57.37 56.23 55.30 54.74 54.43 59.77 64.10 63.97 62.38 61.63 60.30 59.83 59.28 58.35 58.13 56.98 55.99 55.83 55.48 55.79 55.57 55.57 55.57 55.77 56.09 56.27 56.54 56.59 56.93
62.63 62.58 62.80 62.06 61.46 60.86 60.92 60.73 61.01 60.67 59.46 59.94 57.47 56.49 56.03 54.54 54.24 54.13 57.29 59.32 60.53 61.61 62.44 61.13 59.93 59.18 58.84 58.21 57.50 56.71 54.72 53.98 53.72 53.36 53.59 53.63 53.75 54.13 54.79 55.28 55.54 55.86 56.15
63.27 62.46 62.71 63.15 63.43 63.03 60.41 59.57 59.66 59.20 58.19 57.47 55.51 54.35 53.35 53.26 52.75 53.39 54.01 58.56 56.65 56.39 59.68 61.27 59.57 58.29 58.26 57.77 56.75 55.72 54.08 52.76 52.57 52.03 52.08 52.18 52.58 53.06 53.68 54.26 54.92 55.35 56.01
63.37 63.10 63.15 62.99 63.77 62.71 61.71 59.82 59.11 58.90 57.01 55.33 55.19 53.58 51.57 51.60 52.23 53.89 52.85 53.08 56.16 54.51 52.74 58.56 58.51 57.98 57.09 56.12 56.31 55.26 54.06 52.09 51.13 50.75 51.05 51.51 51.75 52.46 53.28 54.02 54.72 55.27 55.84
63.60 62.97 63.10 62.91 62.65 62.20 61.73 60.79 58.70 58.73 57.03 55.83 56.02 53.66 50.50 50.45 51.11 50.99 50.70 52.44 52.01 52.15 51.14 50.54 50.20 50.02 55.05 55.01 54.57 54.02 53.26 51.95 50.66 50.45 50.59 51.10 51.68 52.33 53.19 53.98 54.86 55.40 56.10
63.99 63.00 63.18 62.56 62.52 61.58 62.10 61.41 60.09 58.02 56.60 56.08 52.96 49.29 49.25 49.67 48.84 48.72 49.98 49.68 50.78 51.15 49.34 48.13 46.78 45.19 47.58 53.11 52.77 52.59 51.73 50.98 49.70 49.90 50.31 50.74 51.50 52.55 53.63 54.31 54.83 55.20 55.66
64.39 63.99 63.03 63.06 62.04 61.35 61.19 61.69 61.14 59.67 56.85 56.26 51.70 47.79 45.20 46.88 47.65 48.75 48.07 49.52 48.92 49.69 49.19 47.85 46.63 44.69 44.27 44.55 45.68 49.99 49.39 48.54 49.75 50.44 50.40 50.38 50.92 51.68 52.53 53.32 54.14 54.66 55.06
65.72 64.44 63.12 62.85 62.26 61.88 61.04 61.39 61.23 60.32 58.37 54.72 52.46 50.44 48.05 46.87 44.78 47.24 47.13 47.72 47.67 46.98 47.13 46.88 46.31 44.66 43.54 42.74 46.26 46.53 47.53 48.48 48.32 48.84 49.25 49.52 50.41 51.18 52.19 52.64 53.45 54.22 54.26
65.65 65.05 64.44 63.63 62.43 62.15 61.57 60.65 61.51 60.76 58.89 55.35 53.60 54.36 51.31 48.78 44.95 40.93 44.74 45.89 46.80 46.53 45.43 44.94 44.22 43.20 42.12 42.03 44.43 45.55 47.14 45.66 45.98 47.06 48.00 49.00 49.90 50.74 51.78 52.42 52.78 53.19 53.32
64.31 64.24 64.53 62.16 64.09 63.57 63.24 62.75 60.98 60.84 60.90 57.68 54.32 51.72 52.42 48.42 46.88 44.35 39.22 41.96 44.00 44.93 45.34 44.70 43.40 41.88 41.80 41.31 40.83 45.17 45.88 43.91 44.39 45.74 47.01 48.41 49.56 50.51 51.01 51.98 52.22 51.99 51.40
63.48 63.51 63.61 63.42 63.41 62.73 62.65 62.53 62.14 60.34 59.21 58.75 55.52 53.19 51.40 49.83 48.74 45.80 44.27 40.78 41.47 41.96 43.22 42.91 40.84 40.83 40.64 40.72 43.69 45.27 44.15 42.36 42.90 44.56 46.44 48.03 48.61 49.56 50.04 49.81 50.33 50.17 49.91
60.29 61.61 61.98 62.62 62.20 62.50 62.30 61.94 61.40 60.41 59.87 58.21 57.90 53.72 53.07 52.56 50.33 49.05 47.67 43.06 40.47 38.44 39.46 39.37 38.51 38.87 40.26 39.27 40.66 41.34 41.12 40.60 42.65 43.84 45.53 47.27 47.61 47.34 47.36 47.82 48.25 48.33 48.51
58.86 60.72 60.64 61.72 61.80 61.61 61.40 61.25 60.12 59.63 59.04 58.54 57.62 54.93 53.18 49.47 47.87 47.45 46.20 41.21 38.17 35.02 36.28 35.64 37.48 38.06 38.65 39.36 39.39 41.12 38.33 39.55 40.88 42.82 45.03 46.16 45.08 44.61 45.03 45.50 45.82 45.99 46.34
57.45 56.64 57.23 57.89 59.63 59.53 59.54 59.13 58.36 57.24 56.82 56.18 55.31 51.53 44.55 42.93 42.89 42.53 42.56 43.60 43.03 36.75 34.72 35.60 34.93 36.96 37.03 37.59 38.05 37.76 37.80 38.71 41.13 43.02 43.54 43.21 43.17 43.12 43.42 43.52 43.88 44.23 44.25
52.21 52.31 52.64 53.32 54.24 55.01 54.98 55.13 54.02 53.17 50.36 47.27 45.67 43.62 42.83 41.69 40.75 41.33 41.22 41.07 41.77 39.73 35.72 34.87 34.33 35.10 36.32 37.35 37.23 37.82 37.60 39.70 40.42 41.18 41.83 41.83 42.14 42.16 42.29 42.53 42.55 42.80 43.25
49.20 49.35 50.86 51.99 51.43 50.66 50.51 48.18 46.42 44.88 42.92 41.59 41.06 40.20 39.15 39.26 39.05 39.21 39.25 39.31 38.42 37.49 35.89 33.14 34.39 34.75 34.78 35.32 35.97 35.78 36.36 36.14 36.10 39.34 40.36 40.78 41.00 41.17 41.20 41.40 41.79 42.21 42.60
43.19 42.46 44.84 44.27 43.50 42.82 43.06 43.43 41.80 41.25 40.06 38.66 38.49 37.91 37.43 38.43 37.44 37.66 37.32 37.20 34.99 34.80 35.39 32.47 32.62 32.40 32.75 34.06 34.23 34.02 34.91 36.12 33.90 37.84 39.52 40.32 40.42 40.27 40.47 40.72 40.93 41.20 41.44
37.58 37.68 37.66 37.73 37.51 37.13 38.13 38.12 37.91 37.47 37.63 37.58 37.46 36.91 36.95 36.63 35.30 35.01 34.68 33.80 33.66 33.90 33.32 32.80 31.82 33.32 33.22 33.65 31.59 32.11 31.99 32.19 34.88 37.63 38.06 38.40 39.07 39.77 40.24 40.51 40.59 40.72 40.67
36.60 36.76 36.92 37.73 38.01 38.17 38.18 38.03 37.74 37.04 36.58 36.30 36.47 36.48 36.35 35.69 34.76 34.26 34.16 33.47 33.25 32.20 32.23 31.47 31.09 31.49 31.43 31.86 30.66 29.73 28.91 29.66 28.22 33.09 35.01 36.39 37.93 38.73 38.97 39.30 39.34 39.06 39.00
37.40 38.47 38.44 38.29 38.42 37.72 37.41 36.70 36.28 35.40 34.77 34.32 34.66 35.30 35.67 36.59 37.21 35.88 33.82 33.24 33.00 31.97 31.44 31.50 31.04 30.92 29.94 29.33 28.07 28.76 27.06 27.33 28.51 29.74 28.93 29.65 29.71 31.33 32.34 35.93 36.15 37.34 37.98
37.87 37.42 37.53 38.47 38.47 39.22 40.07 38.71 35.09 32.80 32.62 32.71 32.16 32.60 33.41 33.91 35.50 37.01 35.76 35.64 34.74 32.07 31.71 28.61 28.19 28.14 27.96 27.76 27.47 26.24 25.76 23.87 22.21 28.00 26.68 28.66 29.30 28.65 30.21 30.16 36.26 38.02 38.54
34.21 34.02 34.18 35.31 36.07 37.00 39.64 38.34 35.91 32.16 31.63 31.64 31.77 31.99 32.40 32.80 32.28 31.52 32.51 33.16 33.38 33.91 33.74 30.89 27.97 27.23 25.86 26.85 25.49 22.78 24.86 21.86 23.73 28.38 26.83 26.64 27.87 27.37 30.38 32.59 36.27 37.34 37.99
32.99 32.22 32.09 33.19 33.84 36.31 38.07 37.17 35.26 32.35 32.02 31.44 31.67 31.85 31.20 30.24 30.66 32.11 31.62 30.00 30.43 30.67 31.57 31.72 28.14 27.26 27.44 28.67 28.65 25.92 25.15 26.02 26.69 27.26 27.45 23.30 25.97 26.78 29.15 28.88 35.08 35.93 36.58
31.72 32.48 32.72 32.45 31.62 31.82 35.53 34.80 32.38 29.45 28.55 27.88 29.77 30.18 30.14 29.54 33.08 34.38 30.74 29.75 28.47 27.43 32.36 32.97 32.46 33.41 34.28 34.78 33.80 25.79 21.10 20.12 22.91 24.64 26.53 24.48 24.52 24.81 27.39 27.52 28.39 34.34 35.39
33.04 33.61 31.94 30.82 33.87 28.91 34.77 34.41 32.61 29.88 26.23 27.02 27.45 28.84 32.39 31.06 32.91 32.63 27.81 25.31 23.76 23.71 25.33 27.49 27.28 28.21 29.71 28.27 33.44 27.62 23.37 15.31 25.39 24.06 25.13 22.22 22.43 22.76 22.26 24.46 25.58 27.68 27.20

GFSMA_sfc_wetblb_075.txt.gz
Wetbulb
59.53 60.41 60.33 61.52 61.86 62.18 61.74 61.03 61.53 61.45 60.60 59.81 59.27 58.53 58.40 56.50 56.47 56.42 59.27 64.07 66.03 65.55 63.85 62.60 61.87 61.34 60.77 60.22 59.63 58.94 58.54 58.71 58.63 58.08 57.99 57.76 57.44 57.61 57.64 57.76 58.01 57.99 58.19
60.47 59.24 59.46 60.14 60.84 61.60 61.08 61.05 60.18 60.66 59.79 59.41 58.20 57.11 56.37 55.34 53.93 54.58 56.83 62.27 64.67 64.81 63.59 62.72 61.80 61.44 60.76 59.98 59.39 58.10 57.55 57.12 57.22 56.67 56.42 56.29 56.19 56.14 56.44 56.59 56.63 56.88 57.12
61.36 60.48 59.18 59.38 60.29 60.65 59.35 59.69 59.76 59.57 59.03 59.16 57.47 55.79 55.36 53.57 53.31 53.11 54.87 59.55 61.87 62.65 63.61 62.76 61.54 61.06 60.45 60.11 59.56 57.87 56.66 55.90 55.26 55.00 54.70 54.42 54.45 54.58 54.96 55.34 55.63 55.88 56.09
61.92 61.02 61.22 60.45 60.56 59.77 59.06 58.42 58.52 58.31 57.54 57.24 55.61 54.15 53.52 52.84 52.24 51.88 56.82 58.61 58.18 58.40 61.73 63.08 61.55 60.53 60.17 59.79 59.62 58.62 56.57 55.14 54.47 53.71 53.46 53.11 53.14 53.49 53.76 54.09 54.50 54.73 55.16
62.34 61.34 61.20 61.87 62.01 61.36 60.21 58.56 57.82 58.00 56.66 55.38 55.01 53.43 51.17 50.80 51.07 52.63 52.77 57.24 55.98 55.27 55.06 60.53 60.70 60.23 60.22 59.32 59.02 58.33 56.38 54.51 53.65 52.69 52.68 52.27 52.10 52.52 52.99 53.60 54.00 54.49 55.08
62.25 61.39 61.55 61.77 62.17 61.21 60.53 58.81 57.41 57.39 56.71 55.60 55.55 54.01 50.40 49.79 50.19 50.07 50.48 53.99 56.28 54.44 52.77 53.39 54.18 54.20 58.42 58.49 58.00 57.74 56.83 54.33 52.73 52.10 51.88 51.79 51.94 52.35 52.79 53.46 54.30 54.81 55.33
62.96 61.76 61.91 61.62 61.24 61.29 61.60 60.28 58.06 56.92 55.88 54.85 52.04 49.18 48.29 48.27 48.26 49.41 50.07 49.46 50.94 53.51 51.36 51.43 50.20 48.01 51.83 57.31 57.29 56.44 56.02 54.84 52.83 51.67 51.58 51.67 52.01 52.42 53.18 53.63 53.78 54.42 55.04
63.06 62.81 61.92 62.18 61.32 60.33 60.39 60.46 59.33 56.99 56.45 54.95 51.37 46.72 45.32 46.61 47.52 48.08 47.96 49.33 48.64 49.91 50.00 49.80 48.10 46.55 46.55 47.64 48.82 55.13 53.98 53.64 51.96 51.60 51.86 51.93 51.69 51.69 52.42 53.17 53.49 54.01 54.51
65.02 63.90 62.14 61.52 61.86 61.44 60.43 60.69 60.40 58.44 57.25 55.52 52.62 49.74 45.43 45.20 44.63 45.91 47.14 47.52 47.80 47.49 48.61 48.99 47.99 46.29 45.10 44.75 48.72 50.99 51.68 50.45 51.42 51.97 51.48 51.03 50.73 51.24 51.89 52.86 53.29 53.85 54.03
63.44 63.73 63.41 62.63 61.00 60.68 59.97 59.81 60.79 60.36 57.08 55.65 54.53 53.38 52.08 49.60 44.80 43.39 45.76 46.93 47.33 46.57 47.27 46.30 46.95 44.66 43.53 43.39 46.46 47.08 49.10 49.25 49.22 49.62 49.96 49.96 50.04 50.54 51.52 52.26 53.02 53.39 53.47
63.28 63.24 63.05 62.41 62.01 60.84 60.73 59.62 59.53 59.65 59.63 58.04 55.35 52.79 52.60 51.51 47.90 44.74 43.46 44.57 46.45 47.09 46.90 46.09 45.40 42.82 43.04 42.87 43.60 46.26 48.51 47.23 46.96 46.99 48.22 48.98 49.67 49.85 50.77 51.63 52.32 52.43 52.13
61.63 62.11 62.10 63.48 62.82 61.70 62.31 62.63 62.14 60.71 60.85 60.60 57.83 55.57 52.65 51.46 51.42 47.60 44.16 42.96 44.02 42.71 41.91 40.93 41.11 41.05 40.55 42.23 45.18 47.98 46.89 44.93 45.26 46.55 47.98 48.91 50.08 50.23 50.05 50.50 50.95 50.75 50.52
57.91 60.65 61.61 61.31 60.86 61.02 62.11 61.76 61.23 60.60 59.75 59.74 58.78 56.48 55.12 53.73 52.74 51.28 48.11 44.05 41.79 40.22 40.77 38.82 39.15 39.63 41.12 41.55 42.51 43.09 43.88 43.41 43.43 45.37 48.27 49.10 49.30 48.49 47.94 48.61 49.35 49.31 49.36
57.02 57.96 58.66 59.48 60.90 61.29 60.98 60.67 59.80 59.48 59.41 58.73 57.50 55.83 54.50 53.25 51.01 50.55 48.63 44.61 38.51 37.91 38.13 37.30 38.56 39.07 40.00 40.42 41.75 42.58 41.13 43.88 43.70 43.77 45.80 47.45 47.65 46.71 46.29 45.97 46.78 47.07 46.86
54.48 53.58 55.21 57.21 57.61 57.80 57.60 57.36 57.02 57.03 56.98 55.10 53.02 51.55 47.44 45.23 45.88 46.01 46.35 46.22 46.30 37.69 36.48 36.85 36.84 38.68 39.09 39.77 39.87 39.51 38.39 39.87 42.19 43.34 44.25 45.37 45.13 44.23 44.20 44.42 44.51 44.77 44.89
49.52 50.45 50.36 50.45 50.30 50.54 52.64 53.10 52.59 51.09 50.65 47.19 45.91 44.64 42.72 42.10 42.21 42.71 43.48 44.02 44.21 41.89 38.65 37.23 35.85 35.73 37.14 38.20 38.45 38.57 38.16 39.68 41.60 42.97 43.11 42.57 42.60 42.81 42.84 42.94 43.18 43.31 43.43
43.30 45.67 47.08 47.09 46.62 47.47 47.22 46.35 45.32 44.62 43.19 42.10 41.87 40.87 39.70 40.39 39.91 39.75 40.10 40.22 39.79 39.54 37.78 34.35 34.93 35.22 34.86 35.54 37.10 37.95 37.49 36.57 36.83 39.94 40.55 41.19 41.31 41.64 41.89 41.87 42.04 42.40 42.71
37.81 38.13 39.59 39.06 37.97 38.43 38.94 41.89 41.46 41.03 40.26 39.15 38.85 38.74 38.21 39.02 37.86 38.06 37.92 36.76 35.88 36.04 37.50 33.31 33.03 33.16 34.05 34.82 34.95 34.36 35.29 36.32 35.25 37.41 39.46 40.31 40.57 40.30 40.46 40.95 41.24 41.53 41.50
35.92 36.16 36.24 35.86 35.86 36.09 36.22 36.56 37.89 38.18 37.93 37.84 37.77 37.47 37.06 36.80 35.55 35.26 34.88 34.41 34.35 35.07 34.81 34.08 32.17 33.80 33.63 33.88 33.27 33.55 33.30 31.74 33.89 37.23 38.00 38.15 38.66 39.24 39.88 40.50 40.52 40.54 40.36
35.65 35.76 36.13 36.44 36.75 36.91 37.01 36.78 36.45 35.85 36.47 36.47 36.71 36.54 36.17 35.54 34.69 34.27 34.04 33.78 33.58 32.42 32.23 31.66 31.34 31.63 31.50 32.70 32.19 29.10 27.70 29.65 28.32 32.65 34.40 35.36 36.97 37.56 38.14 38.76 38.82 38.11 38.16
37.42 37.77 37.43 37.63 37.32 37.19 36.56 34.87 35.40 35.09 34.73 34.58 35.24 36.19 36.43 37.33 38.01 36.84 34.46 33.21 32.96 32.07 31.80 31.92 31.16 30.77 29.96 29.10 27.89 28.08 26.66 27.33 27.87 28.93 28.20 27.88 28.64 29.40 30.41 34.82 35.39 36.56 37.71
36.50 37.06 37.83 37.75 37.54 38.00 39.51 38.36 34.42 33.11 33.49 33.05 32.21 32.87 33.64 34.32 35.68 37.03 37.47 36.75 34.20 31.82 31.76 30.09 28.05 27.97 27.53 26.08 25.87 25.71 24.76 22.83 22.26 27.82 26.85 27.01 28.71 27.78 28.19 28.70 35.20 37.54 37.98
34.43 34.30 35.54 36.52 37.04 37.96 38.98 38.26 35.81 30.28 28.92 29.88 31.00 31.34 32.12 32.86 32.37 31.43 32.98 33.76 33.60 34.32 33.86 29.71 26.71 26.24 25.40 25.31 24.24 21.35 24.91 22.01 22.79 26.83 26.85 24.91 26.61 26.22 27.60 30.95 35.12 36.52 37.08
32.52 32.93 32.76 33.57 34.43 37.25 38.30 37.07 35.48 31.15 30.60 30.72 30.18 28.82 28.16 28.09 28.89 31.07 30.80 29.52 29.57 30.01 30.68 31.26 28.37 27.12 26.45 27.26 27.75 25.88 25.17 25.40 25.59 26.26 26.64 19.46 24.67 25.11 26.51 27.80 33.73 35.13 35.92
32.07 32.44 31.44 29.10 28.68 30.92 35.74 35.18 31.06 26.92 26.77 26.34 27.94 27.82 27.99 27.31 33.18 34.29 27.82 25.87 25.49 25.47 30.98 33.20 32.64 33.74 34.67 35.08 33.76 25.39 21.25 18.99 19.59 23.88 25.52 23.81 23.34 24.61 25.37 25.11 26.83 33.05 34.20
31.67 29.23 26.43 27.97 32.82 27.88 35.63 35.38 30.81 28.11 24.99 26.00 26.41 26.90 32.35 29.87 32.23 31.85 25.82 23.91 22.47 22.71 24.60 26.35 26.16 26.82 27.80 27.14 32.82 26.84 22.81 13.13 15.65 16.90 24.58 23.22 21.08 24.42 21.77 23.54 24.74 27.16 25.81

GFSMA_sfc_wetblb_078.txt.gz
Wetbulb
58.56 60.58 60.98 61.37 61.41 61.53 61.18 60.96 61.17 60.87 60.25 60.00 59.70 58.95 58.16 57.06 57.32 58.16 61.26 63.94 66.32 66.51 64.92 63.74 62.61 61.91 61.61 61.11 60.12 59.42 59.39 59.38 59.01 58.99 58.98 58.33 58.43 58.35 58.22 58.44 58.26 58.52 58.73
59.50 60.43 60.10 60.84 60.99 61.10 61.20 60.69 60.14 60.51 59.74 59.34 59.14 57.66 57.57 55.27 56.06 56.08 59.02 62.10 65.13 65.90 64.78 63.79 63.04 62.38 61.84 61.25 60.15 59.23 58.79 58.85 58.25 57.91 57.65 57.39 57.02 57.16 57.15 57.07 57.17 57.30 57.57
59.31 59.58 59.62 58.85 60.25 60.79 61.08 60.06 59.81 59.30 59.32 59.10 57.90 56.12 55.26 53.64 53.15 54.17 55.93 60.06 62.35 63.43 64.63 63.93 63.06 62.34 61.72 61.36 60.73 59.07 58.19 57.55 57.18 56.61 56.16 55.72 55.61 55.72 55.83 55.88 55.92 56.08 56.29
60.65 59.08 58.67 58.74 59.30 59.48 59.59 58.49 58.60 57.79 57.62 57.49 57.21 55.71 54.04 52.84 51.67 51.86 53.56 58.42 59.54 59.86 62.54 64.12 63.29 62.30 61.86 61.20 61.30 59.77 58.04 56.77 55.93 55.39 54.94 54.44 54.50 54.43 54.49 54.67 54.74 54.88 55.20
61.50 60.84 60.19 59.48 58.97 59.09 58.64 58.64 57.23 57.36 56.38 55.78 56.05 54.72 52.33 51.78 51.52 51.71 52.96 55.84 57.81 57.62 57.04 61.03 62.26 61.96 62.05 60.96 61.04 60.62 58.85 56.84 55.78 54.82 54.44 53.75 53.42 53.65 53.66 53.94 54.15 54.57 55.04
61.71 61.05 60.26 60.57 60.85 59.83 59.25 57.55 56.67 56.63 56.57 55.93 56.00 54.54 51.64 50.09 49.88 49.51 50.06 56.01 56.39 56.53 55.98 55.35 57.45 57.05 60.48 61.33 60.58 60.44 59.15 56.88 55.10 54.03 53.75 53.27 53.01 53.32 53.45 53.78 54.33 54.80 55.03
61.75 60.86 60.59 60.37 60.83 61.20 60.77 59.83 57.56 56.31 55.54 54.67 52.25 50.41 48.85 48.93 48.10 48.53 49.16 49.37 55.07 56.26 54.99 54.66 54.44 52.91 55.43 60.16 60.41 59.38 59.06 57.48 55.14 53.79 53.21 52.78 53.01 53.17 53.62 54.07 53.91 54.28 54.61
61.51 61.04 60.39 60.86 60.82 60.03 59.94 59.63 58.88 56.24 55.81 54.22 52.72 48.36 49.37 48.80 47.79 48.39 47.42 48.96 48.69 52.77 53.63 53.31 52.49 50.20 50.24 51.87 53.02 58.90 58.27 57.45 55.95 53.78 52.72 52.59 52.80 53.02 53.10 53.31 53.66 54.14 54.55
64.00 62.16 60.80 60.55 60.38 60.62 60.41 60.12 59.72 58.10 58.29 54.97 52.90 52.57 45.65 46.29 45.39 46.47 46.30 46.08 46.94 47.09 49.00 50.09 49.27 48.51 48.41 48.41 51.60 54.02 55.57 54.95 53.94 52.98 52.68 52.29 51.93 52.11 52.79 53.05 53.49 53.87 54.20
63.39 63.90 63.35 61.96 60.64 60.02 59.71 59.44 60.10 59.57 56.57 55.60 54.18 55.64 51.04 48.90 46.63 45.72 44.82 48.24 49.13 48.67 48.27 47.54 47.71 46.77 45.77 45.82 48.47 50.16 51.55 49.41 50.14 51.14 50.94 50.32 51.01 51.90 52.65 53.29 53.55 53.96 54.05
62.60 62.60 62.86 61.81 61.27 60.33 59.24 59.02 60.09 59.40 59.48 59.41 55.25 52.31 51.45 51.51 48.88 47.78 48.42 45.04 47.08 47.34 48.20 48.31 48.18 47.05 46.06 44.98 45.67 48.52 49.12 48.46 47.47 47.57 48.37 49.57 51.34 53.20 54.02 53.82 53.52 53.71 53.50
61.31 61.58 61.31 60.81 61.16 61.55 60.93 60.30 59.20 60.01 59.87 60.01 59.55 57.43 55.30 52.98 52.39 48.54 46.14 44.76 45.53 43.58 41.67 41.79 42.89 43.21 43.69 44.61 46.53 47.93 49.15 48.62 47.96 48.57 48.73 49.05 50.01 50.79 52.38 53.47 52.38 52.45 52.29
57.58 61.27 59.82 60.10 59.60 59.74 60.70 61.19 61.02 60.40 59.58 58.95 59.11 57.87 56.56 55.84 53.99 53.00 52.17 46.37 44.32 43.34 42.66 40.39 40.85 42.02 43.64 43.97 45.98 46.97 47.21 47.42 47.76 47.22 48.88 51.46 51.72 51.31 51.07 51.34 51.56 51.26 51.15
56.66 56.85 58.09 58.67 59.19 61.12 60.84 60.13 59.31 58.76 58.57 58.43 58.34 58.24 56.99 54.75 52.49 51.82 50.38 48.24 41.24 39.85 39.93 39.85 39.40 40.10 41.08 42.83 44.64 45.68 44.43 45.92 45.90 47.78 48.62 49.05 48.63 48.59 48.84 48.74 48.09 47.91 47.76
53.16 52.93 53.77 53.88 54.15 54.85 56.20 56.34 54.55 53.20 54.20 51.64 49.85 48.78 47.84 46.00 46.55 46.62 47.48 47.68 46.96 40.47 38.30 37.65 37.12 39.69 40.32 41.55 42.87 42.20 40.60 42.91 44.65 44.69 45.76 45.79 45.94 46.75 46.07 45.31 45.44 45.40 45.40
48.70 49.18 49.02 48.70 48.31 49.16 49.40 48.86 46.47 48.16 47.82 45.72 45.03 44.65 43.07 42.69 42.69 43.42 43.92 44.16 44.66 43.50 40.12 38.01 37.12 36.80 38.53 39.62 40.59 39.24 39.26 40.87 42.31 43.86 44.50 44.57 44.02 43.20 43.34 43.42 43.71 43.78 43.74
41.63 43.38 43.93 42.75 42.54 43.68 46.20 45.95 45.09 44.79 43.52 42.34 41.76 40.95 40.21 40.98 40.26 40.30 40.72 40.61 40.32 40.00 37.19 34.29 35.61 35.78 35.79 36.81 37.69 38.84 38.69 38.34 38.06 41.10 42.10 41.79 41.78 41.77 42.10 42.43 42.33 42.39 42.80
36.81 37.22 37.17 36.71 36.84 37.26 37.99 41.44 41.47 41.38 40.86 39.73 39.55 39.22 38.80 39.32 37.98 38.10 37.59 36.26 36.03 36.07 37.21 33.97 33.86 33.87 34.69 35.80 35.99 35.42 36.35 36.91 35.90 37.49 39.32 40.24 40.76 40.51 40.50 40.92 41.34 41.81 42.10
35.88 36.29 36.49 36.08 35.91 36.20 36.19 36.36 36.46 36.08 37.56 37.92 37.71 37.45 37.47 37.16 35.93 35.73 35.34 34.61 34.58 35.13 34.87 34.51 31.62 34.22 34.09 34.20 33.39 33.77 33.42 31.49 33.42 36.67 37.61 37.58 38.21 38.90 39.44 40.34 40.84 40.78 40.47
35.66 35.87 36.02 35.94 35.99 35.83 35.81 35.47 35.02 34.55 35.06 34.72 35.28 36.01 36.11 35.66 34.92 34.51 34.33 34.18 33.83 32.94 32.96 32.44 31.91 31.84 32.11 32.24 32.20 28.78 27.04 28.28 27.68 31.81 33.29 34.87 36.13 37.14 37.95 38.39 38.69 38.31 38.10
36.57 36.64 36.34 36.22 36.04 36.06 35.78 33.89 34.83 34.59 34.49 34.57 35.66 35.93 36.28 37.83 38.46 36.95 33.13 32.97 33.79 33.13 32.56 32.07 31.25 31.03 26.92 29.03 26.62 25.68 25.02 25.28 25.60 26.95 27.18 27.64 28.01 28.27 29.30 33.88 34.72 36.05 37.23
36.98 37.75 37.54 36.32 37.02 38.03 39.46 38.42 34.91 33.61 33.01 32.75 32.48 33.18 33.84 33.10 35.89 38.40 38.21 36.73 34.81 32.19 28.00 28.15 26.15 26.44 25.90 25.48 25.48 24.98 24.24 21.49 21.15 26.90 26.25 26.63 27.22 26.63 27.51 27.94 34.47 36.90 37.70
35.31 35.23 36.17 37.05 37.21 37.31 39.06 38.29 35.65 28.56 27.27 30.66 29.87 25.41 29.81 32.56 32.22 30.77 32.67 34.00 33.50 34.78 33.54 27.93 25.38 24.60 24.02 24.18 22.21 18.98 23.12 18.96 21.36 25.90 25.62 23.79 26.07 25.83 27.03 29.69 34.21 35.50 36.55
33.53 34.03 33.45 34.09 34.87 37.61 38.37 37.31 35.04 27.74 26.42 25.48 24.62 24.63 26.00 26.63 28.30 29.90 28.68 27.87 27.82 28.07 28.38 30.46 27.25 26.21 25.37 25.41 25.75 23.76 23.65 24.51 25.02 25.75 25.92 17.94 24.13 24.57 26.21 27.41 33.01 34.36 35.18
32.65 32.47 32.28 30.15 28.85 30.26 35.67 34.53 29.83 25.51 26.13 25.62 27.24 26.85 26.87 26.91 33.76 33.78 27.05 25.60 24.72 24.99 30.59 33.93 32.88 33.65 34.39 35.22 32.39 26.12 21.47 18.88 19.22 23.65 25.15 23.70 23.17 23.57 24.75 24.74 26.44 32.66 34.35
26.87 27.56 26.33 26.46 32.41 27.50 35.84 34.57 30.11 27.35 24.92 25.95 25.91 26.08 32.60 29.23 32.20 31.90 25.59 23.81 22.39 22.82 24.12 26.35 25.72 25.86 27.11 27.54 32.46 26.43 22.52 13.33 13.97 15.25 24.20 26.20 24.79 23.82 19.21 23.30 24.60 25.71 26.12

GFSMA_sfc_wetblb_081.txt.gz
Wetbulb
58.13 59.93 60.14 61.04 61.29 61.29 60.71 60.65 60.94 60.95 59.59 59.09 59.09 58.81 58.14 57.03 56.76 58.64 60.67 63.39 66.32 67.17 65.78 64.38 63.09 62.06 61.71 61.35 60.34 59.53 59.55 59.36 58.94 58.93 59.02 58.34 58.49 58.14 58.46 58.52 58.52 58.84 58.89
58.24 59.73 60.02 60.32 60.18 60.51 60.39 60.15 59.94 59.78 59.01 58.42 58.74 58.79 58.03 57.24 55.70 57.43 58.90 61.38 64.87 66.58 65.95 64.88 63.95 62.84 62.14 61.62 60.69 59.61 59.22 59.28 58.68 58.31 57.74 57.33 57.12 57.15 57.18 57.20 57.38 57.51 57.80
59.21 59.52 59.68 59.51 60.54 60.52 60.47 59.85 59.35 58.73 58.59 58.64 57.65 58.18 56.57 55.39 54.03 55.69 56.61 59.70 61.76 63.97 65.62 64.96 64.19 63.31 62.57 61.95 61.44 59.94 58.96 58.75 58.10 57.30 56.70 56.11 55.84 56.02 55.90 55.90 55.98 56.02 56.32
59.53 58.67 58.96 59.10 59.63 59.62 59.86 59.00 58.56 57.89 57.36 57.23 57.14 57.35 55.58 53.78 52.25 52.89 53.93 57.11 59.62 60.73 63.06 65.08 65.00 63.69 62.90 62.47 62.15 61.19 59.27 57.88 57.05 56.40 55.52 54.74 54.59 54.53 54.73 54.84 54.95 55.09 55.43
60.46 58.86 58.53 58.86 58.22 58.22 58.50 58.61 57.53 57.05 56.27 56.20 56.43 56.45 54.80 52.90 52.16 51.71 51.36 53.40 57.66 58.88 58.05 61.11 63.04 63.23 63.40 62.48 62.22 62.13 60.50 58.11 56.58 55.58 54.96 54.19 53.72 53.84 54.03 54.32 54.60 55.08 55.73
61.44 59.76 58.95 58.47 58.02 57.42 57.16 56.77 57.06 56.18 56.33 56.17 56.75 55.91 54.03 51.78 50.80 50.22 49.85 52.57 54.93 57.38 56.91 56.53 57.49 58.67 61.47 62.82 61.93 61.85 61.42 59.69 56.78 55.66 54.60 54.00 53.68 53.70 53.78 54.28 54.93 55.54 56.10
61.90 60.55 59.97 59.25 59.70 58.47 58.41 58.13 56.59 55.88 55.02 54.57 53.40 51.76 50.50 50.51 49.68 48.85 49.12 49.08 53.45 55.44 55.49 55.18 54.75 55.30 56.46 61.61 62.08 61.34 61.18 60.20 57.21 54.87 53.79 53.36 53.39 53.72 53.98 54.67 54.99 54.99 55.59
60.79 60.46 59.85 59.78 59.63 59.95 59.41 58.79 58.07 56.12 55.48 54.18 54.00 51.54 52.00 53.06 49.09 49.50 47.93 48.94 48.06 53.29 54.43 54.44 53.51 53.64 53.01 54.27 56.12 60.61 59.82 59.67 58.15 55.00 53.76 53.06 53.28 53.48 53.77 54.06 54.54 54.63 55.42
62.09 60.80 59.93 59.81 59.64 59.75 59.64 59.34 58.47 57.33 57.82 54.25 53.05 55.61 49.04 48.90 46.63 48.08 45.81 45.83 46.89 46.59 49.38 51.96 51.94 52.10 50.12 49.81 52.21 53.57 54.97 55.18 55.96 54.70 53.13 53.50 52.92 52.45 53.19 53.72 54.00 54.69 55.10
63.27 63.16 61.70 60.11 59.68 59.54 59.16 58.87 59.05 58.95 58.41 58.55 54.61 55.16 53.57 51.50 49.60 48.73 46.23 46.75 46.39 47.08 47.54 47.79 48.79 48.14 47.75 48.63 51.10 51.61 53.37 54.18 54.58 54.22 54.18 52.69 52.08 52.69 53.26 54.49 54.88 55.44 55.08
62.30 62.84 63.03 61.67 60.77 59.27 58.66 58.40 57.91 59.72 59.62 59.61 56.90 55.21 54.39 51.78 49.48 49.33 50.89 50.06 47.14 45.98 47.14 47.54 48.42 48.36 48.48 48.11 48.68 50.59 52.49 53.16 54.30 53.09 52.51 50.96 50.82 51.95 53.08 52.79 53.53 53.95 54.43
60.28 60.90 61.17 61.19 61.00 60.47 59.83 59.02 58.28 58.69 59.65 59.26 58.25 57.09 55.96 53.18 51.95 50.42 48.37 50.05 46.86 45.19 42.76 43.06 44.71 44.40 46.17 45.96 48.52 49.76 51.81 51.83 51.83 51.37 51.87 52.48 52.70 52.85 52.90 54.06 54.94 54.16 52.98
56.36 58.75 59.65 59.40 59.17 59.06 59.59 59.53 60.32 59.39 57.68 58.68 58.85 58.23 57.42 56.21 54.85 52.82 51.92 50.61 45.95 43.85 43.05 41.50 41.58 42.14 44.13 45.29 46.58 48.47 49.91 50.84 51.09 51.86 52.97 53.83 52.84 52.92 53.77 53.19 52.19 53.60 52.97
55.94 55.56 56.69 57.98 58.18 58.59 58.54 58.47 59.18 58.47 58.05 57.13 56.14 56.29 56.34 53.55 53.18 52.75 51.45 49.53 43.06 41.52 40.58 41.82 39.59 40.83 42.45 44.73 45.82 48.75 48.40 49.87 49.39 49.40 50.42 51.29 51.39 49.42 48.96 49.53 50.59 49.46 48.92
52.75 53.40 54.33 54.36 54.23 54.38 55.63 55.93 54.03 53.51 51.35 49.98 48.36 48.47 47.71 45.84 46.45 46.88 47.69 48.25 47.44 43.00 40.93 38.89 38.08 40.06 41.19 42.37 45.25 42.80 42.43 45.83 46.67 47.47 47.04 47.28 47.62 47.22 47.54 46.69 46.29 46.35 46.30
48.28 48.30 48.17 48.70 48.99 49.39 49.29 48.78 48.53 49.26 46.43 45.57 45.23 44.45 41.92 43.16 43.28 43.51 43.99 44.25 44.22 43.50 41.03 38.11 37.20 37.70 39.59 40.55 41.67 40.34 40.63 42.16 43.70 45.72 45.75 45.52 45.71 44.88 44.02 44.20 44.27 44.34 44.36
41.00 41.26 41.20 41.67 42.30 44.04 45.18 44.71 44.67 45.31 44.06 42.81 42.56 41.89 40.95 41.42 39.67 40.69 40.75 40.59 40.02 40.40 37.88 34.62 35.79 36.20 36.67 37.77 38.75 39.55 39.27 39.22 39.26 40.95 42.92 42.81 42.84 42.58 42.70 42.72 42.99 42.94 43.07
36.45 36.62 37.09 37.05 37.30 38.10 38.94 40.73 40.25 41.59 40.69 40.41 40.07 39.93 39.15 39.83 38.31 38.16 37.30 36.76 36.07 36.81 37.60 34.64 34.21 34.28 34.91 36.24 36.54 36.35 37.27 37.80 36.58 37.91 39.59 40.39 40.85 41.36 41.17 41.05 41.33 41.61 42.18
35.94 36.46 36.54 36.17 36.27 36.48 36.39 36.13 36.00 37.66 38.02 37.97 38.13 37.78 37.51 37.28 35.51 35.28 34.76 31.38 30.72 35.24 35.40 34.75 32.70 34.02 34.07 34.44 33.81 34.39 33.87 33.05 33.78 36.38 37.73 37.71 38.27 38.76 39.31 39.97 40.55 40.97 40.92
35.69 35.45 35.54 35.59 35.49 35.34 35.22 34.92 35.11 35.09 34.66 33.98 34.23 33.95 33.61 33.38 32.27 31.48 31.36 31.14 32.07 31.78 31.33 30.42 31.48 32.20 32.57 33.08 32.45 28.91 27.68 27.09 27.17 30.97 32.54 34.64 35.48 36.45 37.21 38.24 38.50 38.59 38.42
35.79 35.77 35.52 35.62 35.35 35.35 35.31 35.26 35.66 35.31 35.01 34.87 35.23 36.44 36.54 37.51 38.37 35.93 32.34 31.02 30.85 30.28 32.02 31.75 30.84 31.14 30.22 27.83 26.30 25.56 24.89 24.58 24.52 25.51 26.12 26.74 27.38 27.72 28.51 33.08 33.84 35.52 36.88
37.08 35.82 35.41 36.33 37.11 37.92 39.25 38.22 35.66 34.22 33.94 33.78 32.92 32.99 33.48 32.68 35.63 38.25 37.61 37.07 35.12 29.18 26.59 25.90 28.58 24.86 24.30 24.01 24.32 24.03 22.53 19.28 19.48 25.77 25.41 25.45 26.71 26.07 27.01 27.48 34.06 36.59 37.21
36.22 36.14 36.69 36.87 36.89 37.28 39.06 38.21 35.57 29.29 30.95 30.92 26.45 24.52 28.93 31.33 30.16 28.62 32.97 34.11 34.45 35.74 33.28 27.11 24.65 23.93 23.62 23.90 21.70 18.29 22.51 17.56 20.61 25.17 25.11 23.28 25.70 25.31 26.70 28.86 33.78 35.23 36.07
34.30 34.58 33.66 34.26 35.09 36.98 38.37 37.16 34.56 25.88 24.91 24.08 23.01 23.53 25.28 25.94 28.64 28.73 27.92 27.34 27.33 26.52 28.41 29.90 26.81 25.97 25.75 25.11 25.07 22.38 22.49 24.11 25.05 25.34 25.43 17.75 23.77 24.24 25.72 26.75 32.27 34.03 35.29
32.76 32.51 32.51 29.92 29.03 30.50 35.28 34.12 29.21 24.86 25.85 25.24 26.68 26.37 26.87 27.00 33.66 33.34 26.59 25.49 24.30 24.67 30.52 33.84 33.00 33.52 34.01 34.27 32.17 28.46 23.86 18.92 19.37 23.28 24.87 23.31 22.84 22.96 24.34 24.31 26.20 32.30 34.72
31.14 28.80 27.23 26.55 32.41 27.67 35.44 34.01 29.34 27.00 24.71 25.74 25.36 25.76 32.68 29.18 32.24 31.94 25.10 23.53 22.05 22.60 23.70 26.16 25.14 25.39 26.83 28.05 32.17 26.22 21.95 11.60 13.31 15.80 23.50 21.22 21.68 22.30 17.92 22.60 24.23 25.40 25.75

GFSMA_sfc_wetblb_084.txt.gz
Wetbulb
59.26 59.57 59.92 60.72 61.24 61.40 60.76 60.13 60.20 60.49 59.61 58.09 57.70 57.50 57.30 56.52 56.73 57.32 58.99 62.33 66.08 67.39 66.29 64.93 63.53 62.31 61.60 61.26 60.20 59.36 59.20 59.13 58.80 58.89 59.28 58.67 58.94 58.54 58.93 58.68 59.14 59.12 59.45
57.89 59.59 59.31 59.51 60.09 60.48 60.34 59.69 59.42 59.46 59.14 57.59 57.39 57.67 57.72 57.51 57.02 55.95 57.68 59.85 64.34 66.40 66.87 65.89 64.73 63.54 62.49 61.90 60.97 59.49 58.90 58.93 58.45 58.26 57.83 57.73 57.55 57.57 57.67 57.69 57.80 58.06 58.26
58.47 58.44 59.28 59.08 59.75 59.83 59.83 59.09 58.61 58.20 57.78 57.91 56.80 57.15 57.49 56.57 55.65 54.83 56.17 57.92 60.56 63.65 66.10 66.18 65.16 64.50 63.47 62.71 61.97 60.57 59.21 58.79 58.32 57.54 56.96 56.43 56.17 56.33 56.20 56.30 56.51 56.71 56.98
60.09 58.54 58.73 58.97 59.57 59.48 59.31 58.68 58.17 57.37 56.91 56.54 56.62 57.41 57.34 55.89 54.26 52.86 54.31 55.77 58.36 60.35 62.99 65.94 66.17 64.93 64.06 63.49 62.88 61.94 60.31 58.52 57.74 56.88 56.10 55.13 54.88 54.82 54.97 55.06 55.34 55.60 56.00
60.90 59.45 58.96 58.97 58.58 58.36 58.25 58.20 57.29 56.93 55.99 55.96 56.12 56.41 56.32 55.49 54.31 52.86 51.23 52.77 54.90 58.56 58.66 61.45 63.49 63.94 64.57 63.70 63.49 62.92 62.01 59.88 57.63 56.07 55.42 54.49 53.88 53.77 54.14 54.46 54.92 55.34 55.98
61.94 59.73 58.24 58.05 57.83 57.17 56.67 56.52 56.74 55.86 56.08 55.88 56.59 56.19 55.26 54.64 52.69 51.48 50.95 50.95 52.00 55.29 57.17 57.18 57.34 59.02 62.06 63.77 63.17 62.99 62.48 61.47 58.72 57.23 55.19 54.54 53.90 53.46 53.91 54.18 54.94 55.89 56.30
62.41 60.41 59.18 58.01 57.38 57.02 57.17 56.67 55.86 55.58 54.73 54.22 53.82 53.19 52.54 52.60 52.22 50.98 50.19 49.63 50.01 52.98 54.89 55.92 55.53 55.39 56.67 62.09 63.35 62.71 62.35 62.13 60.26 57.28 55.36 53.53 53.51 53.54 53.90 54.63 54.87 55.01 55.39
61.25 60.75 59.91 58.86 58.37 58.08 57.11 56.69 56.14 54.86 54.90 53.93 53.78 52.21 53.09 54.53 50.86 50.05 48.83 48.80 48.25 50.34 53.43 54.22 54.15 54.16 54.05 54.39 56.68 61.65 61.49 60.48 60.47 57.81 55.75 54.80 54.63 54.07 53.74 54.01 54.59 54.68 54.94
60.79 60.26 59.74 59.53 58.74 59.16 58.99 58.50 57.65 56.61 55.67 54.05 53.70 56.57 51.11 50.65 49.79 51.37 48.48 46.66 46.75 46.44 48.55 51.78 54.03 54.15 53.44 52.62 55.56 56.46 57.64 57.72 59.53 59.61 57.27 54.30 54.40 54.14 53.27 53.25 54.34 54.98 55.72
62.16 61.54 60.42 59.39 59.11 58.91 58.74 58.60 58.50 58.31 58.08 58.16 54.71 55.36 54.57 53.08 51.98 50.51 48.00 46.15 46.38 46.53 47.56 46.68 48.74 49.96 49.32 50.87 53.04 53.88 56.12 56.33 57.28 58.16 55.69 55.43 54.56 53.89 54.05 53.18 53.86 54.47 53.99
62.16 62.49 62.19 60.83 59.38 58.59 58.34 58.12 57.36 57.30 57.84 57.62 55.25 53.56 52.33 52.10 51.17 50.36 51.50 52.34 48.54 45.99 45.11 45.10 47.46 48.79 48.80 48.84 50.40 52.60 54.93 55.77 57.37 57.65 57.65 55.96 54.51 54.10 54.34 54.50 55.75 55.61 55.42
59.92 60.54 61.00 61.27 60.86 59.88 58.96 58.52 57.87 57.28 57.36 57.44 58.66 57.20 55.62 53.84 51.91 50.21 49.29 50.22 50.32 46.61 43.81 42.11 42.42 42.38 44.86 47.63 49.47 51.27 53.88 55.00 56.32 56.92 56.57 55.09 54.76 54.91 55.38 55.83 55.48 55.61 55.44
55.43 57.20 58.72 59.21 59.27 59.22 59.12 59.05 58.53 57.84 57.49 58.14 57.73 58.19 56.58 56.59 55.36 53.27 52.07 51.19 48.57 45.22 42.84 42.09 42.07 43.23 44.82 44.29 47.31 49.82 52.01 53.74 54.41 54.68 55.02 55.92 55.01 54.45 53.58 54.14 53.90 53.33 53.76
55.01 56.31 55.91 57.25 57.89 58.57 58.62 58.39 57.68 58.54 57.98 55.86 54.46 54.48 55.11 51.51 52.62 52.51 51.84 50.09 45.97 43.23 39.45 41.41 40.29 41.40 43.02 44.21 45.66 49.00 48.10 51.36 51.88 52.50 52.55 51.22 50.83 50.47 50.47 50.41 50.74 49.74 49.64
52.86 52.95 53.60 54.07 54.28 55.52 57.35 56.32 54.86 52.33 51.01 49.99 48.84 48.26 47.92 46.06 45.83 46.66 47.92 48.66 47.90 43.78 42.15 39.03 38.88 40.35 41.55 43.45 45.04 43.70 43.73 48.52 48.30 47.41 47.49 47.83 48.00 48.22 47.94 47.74 46.73 46.58 46.88
46.28 47.76 48.51 49.12 49.47 49.82 50.19 50.33 49.66 48.33 45.72 46.08 45.99 45.23 42.83 42.39 42.22 42.90 43.57 44.89 44.93 44.94 41.82 38.64 37.39 38.38 40.20 41.21 43.05 41.37 41.78 43.21 43.86 45.28 46.26 46.09 45.96 45.98 44.84 44.88 45.19 45.05 45.00
39.56 39.83 41.10 42.40 44.50 45.72 46.50 46.09 45.82 46.17 44.69 43.69 43.39 42.65 41.50 41.94 40.87 40.46 38.97 38.70 38.30 38.54 38.50 35.09 36.27 36.62 37.36 38.38 39.12 39.62 39.76 39.55 39.71 41.42 43.04 44.12 43.79 43.67 43.26 43.18 43.19 43.11 43.05
36.39 36.86 37.78 38.28 38.82 39.06 39.89 41.02 40.72 41.29 41.62 41.03 40.75 40.49 39.62 40.10 38.39 38.00 38.09 36.88 34.37 36.72 38.00 35.10 34.59 34.76 35.16 36.58 36.77 36.63 37.57 38.10 36.97 37.94 39.84 40.49 40.91 41.38 41.42 41.22 41.10 41.42 41.75
36.11 36.49 36.56 36.45 36.42 36.74 36.62 36.06 36.74 38.56 38.54 38.49 38.66 38.27 37.86 37.59 36.17 35.85 35.23 34.52 32.94 33.42 31.76 31.51 31.54 34.03 33.78 34.30 33.48 34.81 34.23 33.78 34.22 36.01 37.49 37.70 38.25 38.53 38.89 39.60 40.16 40.55 40.90
34.86 34.84 35.04 35.10 35.31 34.97 35.43 35.56 35.58 35.32 35.08 34.48 34.50 34.13 33.42 32.70 31.50 30.68 30.39 30.38 30.97 30.25 30.00 29.34 29.11 31.80 32.41 33.28 32.45 30.45 29.50 28.18 27.12 30.30 31.83 33.98 36.33 36.18 36.57 37.35 38.37 38.41 38.46
35.04 35.30 35.01 35.11 34.90 35.33 36.67 36.14 36.20 35.71 35.62 35.27 35.76 36.63 36.70 37.71 38.30 35.91 31.77 29.71 29.62 28.96 29.22 28.68 27.83 28.31 28.95 27.94 27.67 25.09 24.61 24.30 24.23 25.24 25.86 26.52 27.11 27.43 28.02 32.44 33.37 35.04 36.81
35.54 35.49 35.50 36.56 37.42 38.28 39.06 38.55 36.50 34.92 34.66 34.09 32.80 32.59 32.90 33.40 36.47 38.66 37.83 37.29 33.29 28.25 24.51 22.10 19.65 23.21 23.67 23.29 23.86 23.51 21.95 19.24 18.83 25.15 24.96 25.09 26.05 25.86 26.97 27.49 33.73 36.53 36.94
36.48 36.50 36.64 36.97 36.85 37.59 39.11 38.21 36.50 32.79 32.09 29.43 25.88 26.15 28.80 31.24 29.97 28.38 33.46 34.52 34.74 35.73 32.87 26.62 24.21 23.52 23.37 23.59 21.21 18.12 21.93 16.96 20.02 24.81 24.90 22.92 25.20 24.78 26.62 28.41 33.64 35.27 35.97
35.05 34.96 33.91 34.62 35.50 37.72 38.37 37.05 34.34 26.64 25.04 23.89 23.34 23.77 25.30 26.08 29.11 27.62 27.48 27.20 26.12 25.89 28.67 29.20 26.45 25.44 25.37 24.77 24.66 21.75 22.22 23.64 24.94 25.11 24.97 17.52 23.53 24.20 25.75 25.98 31.74 33.97 36.08
32.98 32.73 32.86 31.72 30.66 32.28 36.21 34.45 29.37 25.36 26.00 25.14 26.45 25.90 26.89 26.58 33.39 32.48 26.19 25.63 24.05 24.36 30.70 33.96 32.86 33.38 33.42 33.80 31.01 28.54 27.70 19.30 18.99 22.88 24.41 22.90 22.60 22.53 24.22 24.19 25.93 32.26 35.00
31.77 30.98 28.17 28.42 33.33 29.66 34.90 33.67 29.11 26.77 24.77 25.45 24.98 25.49 32.95 28.84 32.30 32.10 24.95 23.36 21.53 22.12 23.83 25.52 24.39 25.25 27.05 29.26 31.42 25.81 21.56 11.11 13.10 15.13 22.88 23.01 20.36 21.07 17.53 22.09 23.98 25.40 25.80

GFSMA_sfc_wetblb_090.txt.gz
Wetbulb
67.45 68.51 68.89 69.01 69.41 69.69 69.08 68.56 68.14 67.89 67.58 67.31 65.81 63.32 63.07 64.04 64.80 65.54 66.42 63.49 64.55 67.06 67.62 66.61 64.93 63.43 62.57 62.05 60.91 60.16 59.92 59.81 59.56 60.25 59.59 59.78 59.57 59.75 59.83 59.43 59.55 59.89 60.65
66.53 67.31 67.89 68.02 68.16 68.31 68.24 67.92 67.04 66.31 66.33 66.82 66.08 63.93 63.45 64.59 65.30 65.64 65.98 65.90 63.12 64.99 67.26 67.32 66.62 65.27 63.92 63.30 62.30 60.64 59.93 59.79 59.36 59.28 58.81 58.68 58.69 58.56 58.48 58.36 58.48 58.82 59.06
67.40 66.99 66.15 66.43 66.98 67.13 66.58 67.07 66.64 66.14 65.31 65.15 64.54 64.54 63.12 64.60 65.52 65.61 65.84 65.79 65.64 62.57 65.30 67.33 67.22 66.38 65.38 64.36 63.74 62.43 60.92 60.32 59.56 58.99 58.34 57.80 57.71 57.48 57.34 57.08 56.95 57.22 57.66
68.41 67.44 66.72 65.58 66.10 66.30 66.29 66.23 65.90 65.28 64.91 64.87 64.40 64.89 65.03 64.95 65.39 65.85 65.74 65.51 65.32 65.31 64.63 65.81 66.87 66.68 65.99 65.51 64.84 64.32 62.69 61.17 60.44 59.35 58.37 56.98 56.47 56.52 56.23 56.10 56.38 56.53 56.50
68.56 68.12 67.56 67.20 66.31 65.93 65.67 65.98 65.53 65.09 64.31 64.39 64.38 64.82 65.34 65.37 65.63 65.19 65.27 65.45 65.27 64.36 65.22 64.36 64.04 64.94 65.78 65.46 65.38 64.96 64.41 62.41 60.94 59.71 58.47 57.32 56.67 56.41 56.18 55.88 55.80 55.88 56.44
68.98 68.39 68.28 68.02 67.45 66.30 65.91 65.39 64.79 65.05 64.23 64.23 63.27 63.15 64.88 65.46 65.79 65.69 65.72 65.52 65.22 64.21 64.10 64.15 64.40 63.84 62.94 64.82 65.09 64.92 64.72 64.24 61.98 60.55 59.15 57.76 56.69 56.35 55.61 55.38 55.74 56.48 56.06
69.52 69.05 68.58 68.15 67.78 66.53 66.10 65.79 64.73 63.79 63.79 64.16 62.76 63.40 64.01 65.08 64.90 65.44 65.77 65.27 64.40 63.46 63.22 62.80 62.82 63.11 63.37 63.10 64.19 64.46 64.50 64.42 63.77 61.30 59.53 58.15 57.21 56.11 55.63 55.07 55.61 55.29 55.01
69.52 68.78 68.29 67.84 67.55 66.25 65.75 65.07 64.05 63.31 63.51 64.35 62.10 62.09 59.89 62.53 64.09 64.26 64.23 63.23 62.56 62.60 61.58 60.91 61.13 61.23 61.77 62.16 62.16 62.61 63.29 63.91 63.91 63.26 60.40 59.20 57.48 56.94 56.52 55.70 54.74 54.75 55.46
67.58 67.25 67.62 67.49 67.13 66.42 65.57 65.60 64.91 63.53 62.46 63.47 62.85 61.96 57.04 56.73 59.70 61.73 60.85 60.66 60.00 59.98 58.18 57.51 58.58 58.90 59.09 59.74 59.63 59.15 59.51 60.81 62.88 63.24 62.42 59.73 58.59 57.74 57.08 56.81 55.95 56.51 56.37
66.32 66.44 66.61 66.59 66.69 66.25 65.49 66.13 65.65 64.67 63.66 62.34 62.59 61.99 63.31 61.19 57.13 55.07 58.64 59.81 57.43 56.27 55.26 56.81 56.91 56.69 56.95 57.78 56.69 55.78 56.73 58.87 61.09 62.77 62.39 60.96 59.94 59.15 58.55 58.26 57.68 57.27 56.77
67.94 66.74 65.70 65.39 65.13 65.31 65.11 65.26 64.82 64.36 64.39 63.47 63.39 62.39 60.49 58.74 57.87 55.36 54.13 58.13 58.13 54.71 53.48 53.66 52.85 54.67 54.87 55.62 56.47 55.18 55.15 57.48 59.47 61.12 62.03 62.07 61.70 59.97 59.74 57.87 56.75 56.88 56.82
67.23 67.28 67.13 66.83 66.34 65.58 64.99 65.09 65.09 64.58 64.20 63.79 63.65 63.07 60.94 59.65 58.56 56.68 54.97 55.29 56.14 55.50 52.49 52.53 52.37 52.08 52.47 52.47 51.69 51.20 52.64 55.10 57.00 58.66 60.48 60.49 60.24 59.64 56.33 55.93 56.30 56.25 55.33
62.46 64.03 64.30 64.68 64.63 64.92 65.03 65.36 65.25 64.71 64.24 63.24 62.91 62.22 62.06 61.50 60.91 59.67 57.13 56.33 55.29 54.89 52.55 49.53 50.20 50.83 50.20 50.99 50.70 49.14 50.88 52.42 54.65 56.20 57.80 58.40 56.33 54.21 53.85 53.78 53.43 52.63 52.46
59.17 59.54 60.05 61.39 62.49 62.78 63.61 64.45 64.40 64.11 63.94 63.46 62.45 61.67 59.74 55.70 56.08 56.69 56.26 55.38 52.38 52.80 52.21 51.33 48.41 48.24 47.99 47.68 48.75 49.07 51.55 51.09 53.16 53.99 54.38 52.98 51.49 50.77 50.19 50.28 50.17 49.62 49.55
56.04 57.25 58.14 58.85 59.70 60.77 61.85 62.61 61.93 59.91 59.89 56.84 55.60 54.41 52.61 51.48 52.41 52.30 52.31 53.40 53.30 50.66 50.38 47.65 48.79 46.30 45.42 46.27 45.95 47.55 47.25 48.89 49.84 49.76 49.48 48.90 48.42 48.22 48.09 47.23 47.02 47.21 47.51
53.04 54.15 55.16 55.88 56.23 56.35 56.91 57.35 54.91 53.20 52.13 51.45 51.37 50.69 50.16 49.88 49.42 49.97 50.20 50.53 51.15 50.96 47.53 45.97 43.26 43.53 44.07 43.85 43.85 42.99 43.22 43.99 45.67 46.78 46.68 46.36 46.33 46.18 46.06 45.71 45.63 45.45 45.37
49.80 50.52 50.30 52.24 52.41 52.76 52.52 52.01 51.15 50.89 49.77 48.98 50.75 50.81 48.74 47.39 46.07 45.78 46.48 48.06 48.81 49.05 47.19 39.83 40.32 40.87 42.47 43.40 44.09 44.74 43.04 42.69 42.73 43.19 43.72 43.66 43.44 43.36 43.50 43.27 43.08 43.14 43.24
46.99 47.38 48.35 48.89 48.51 48.69 49.63 50.54 49.19 50.08 50.14 49.46 48.42 47.31 44.82 44.31 44.32 45.28 46.73 45.52 45.77 46.36 45.60 40.82 39.03 39.70 40.51 40.60 41.40 40.88 40.55 41.30 42.08 39.72 40.63 40.95 41.27 41.54 41.31 41.06 41.18 41.48 41.53
45.67 45.54 45.96 46.14 45.97 46.01 47.07 48.14 48.53 48.12 47.96 47.49 46.94 46.21 44.82 44.33 42.64 42.49 43.24 42.40 42.32 42.00 44.00 42.81 38.15 39.32 39.58 40.78 40.81 41.34 40.17 40.29 38.77 36.49 37.19 37.39 38.11 38.56 38.71 39.14 39.70 40.49 40.84
44.54 44.34 44.20 43.83 43.50 43.88 44.26 44.72 45.38 44.84 44.25 43.48 43.12 42.61 42.18 42.12 41.47 41.27 40.51 40.88 41.60 42.04 42.20 41.45 39.99 39.20 40.46 39.83 39.75 38.69 38.23 38.51 37.81 37.12 36.06 35.09 36.35 37.20 37.57 37.83 38.10 38.44 39.03
42.82 42.86 42.45 42.30 42.32 42.53 42.55 43.09 42.78 42.04 41.25 40.14 39.90 40.05 40.32 39.43 39.37 39.53 40.40 40.05 40.46 40.65 41.05 40.72 38.82 38.71 38.09 37.44 37.57 36.76 35.74 36.31 37.13 36.34 36.17 37.46 37.01 37.60 37.98 37.00 36.22 36.41 36.75
41.87 42.18 41.59 41.76 41.22 41.09 40.94 41.20 41.95 41.32 40.75 39.46 38.40 38.96 39.39 40.36 40.31 39.89 38.91 37.72 38.64 38.60 37.43 38.05 37.11 36.73 35.17 35.65 35.60 34.94 34.17 33.31 32.56 35.87 34.41 35.12 36.59 36.43 37.53 37.86 34.85 36.21 37.41
41.30 40.56 40.40 40.46 40.14 40.69 41.41 41.10 39.97 38.56 36.89 35.59 35.64 35.95 36.19 36.24 37.81 38.21 37.74 37.40 37.36 36.35 36.03 36.56 34.65 34.65 33.64 34.59 33.95 32.37 32.44 32.29 32.22 35.15 33.60 33.50 36.06 35.03 37.51 36.33 35.20 35.57 36.61
38.85 38.59 37.37 39.09 39.29 39.61 40.23 39.73 37.75 36.30 35.82 35.10 35.09 35.42 34.68 34.03 34.22 34.14 34.45 33.85 34.55 34.76 34.55 34.35 35.00 34.11 34.32 34.16 34.20 33.66 33.53 33.24 34.36 34.59 34.03 31.57 35.48 33.91 36.39 36.55 32.56 35.09 36.28
35.81 36.16 37.65 38.19 38.00 38.11 38.47 37.65 35.65 34.49 32.50 32.19 33.67 35.00 35.38 35.23 33.59 33.09 33.42 31.99 32.32 33.33 35.29 34.65 34.93 34.40 33.96 34.14 34.44 34.70 33.15 32.27 31.66 31.94 33.73 31.41 33.49 32.23 34.21 34.12 35.15 33.10 34.49
34.88 35.17 34.81 36.71 37.83 37.17 36.88 34.98 33.87 32.57 31.86 32.03 33.05 33.50 33.32 34.32 34.46 31.54 31.74 31.62 30.37 31.00 31.66 31.47 32.03 31.83 33.39 33.48 32.24 33.85 33.36 31.01 31.19 31.13 32.35 30.13 30.17 30.65 30.59 34.49 33.85 34.70 35.10

GFSMA_sfc_wetblb_093.txt.gz
Wetbulb
66.89 66.76 67.81 68.78 69.01 69.16 68.98 68.45 67.69 67.40 67.11 66.89 65.68 62.87 62.41 63.42 64.29 64.87 65.56 64.39 65.69 66.60 67.76 67.21 65.43 63.85 63.11 62.26 61.18 60.43 60.21 59.87 59.98 60.19 59.98 59.75 59.84 59.81 59.57 59.52 59.84 60.31 60.46
66.81 67.65 68.02 67.99 68.12 68.34 68.06 67.59 66.77 65.90 65.80 66.30 65.72 64.53 62.76 63.57 64.25 65.14 65.81 65.27 64.13 65.18 66.87 67.81 67.52 66.07 64.67 63.84 62.57 60.85 60.21 59.92 59.63 59.32 59.14 58.78 58.67 58.55 58.49 58.51 58.67 59.00 59.41
66.87 66.91 66.74 66.88 67.11 67.22 66.40 66.58 66.26 65.67 64.63 64.45 64.21 64.36 63.30 63.29 64.71 65.16 65.79 65.87 64.82 63.03 65.23 67.51 67.63 67.29 66.16 65.22 64.67 63.36 61.96 61.26 60.38 59.75 58.88 58.14 57.87 57.52 57.36 57.07 57.04 57.45 58.05
68.32 67.62 66.91 65.51 66.17 66.44 66.17 65.87 65.44 64.87 64.32 64.44 63.98 64.64 64.52 63.89 64.20 65.09 65.88 65.73 66.18 65.45 63.82 65.95 67.13 67.51 66.94 66.29 65.67 65.15 63.43 61.85 61.03 60.23 59.31 58.27 57.47 57.15 56.60 56.25 56.28 56.45 57.02
68.67 68.10 67.49 66.87 65.86 65.92 65.79 65.89 65.27 64.97 64.63 64.53 64.58 64.85 65.43 65.45 65.72 65.61 65.33 65.79 66.19 65.82 65.58 64.48 64.49 65.54 66.21 66.35 66.30 65.86 65.31 63.60 62.09 60.90 59.81 58.57 57.56 56.96 56.49 55.92 55.65 55.86 56.45
69.02 68.36 68.11 67.89 67.12 66.02 65.52 65.89 65.42 65.55 64.57 64.40 63.61 63.12 64.57 65.55 66.19 65.90 65.72 65.85 65.98 65.93 65.14 65.25 64.54 63.33 63.27 65.42 65.81 65.63 65.36 64.84 63.44 62.01 60.80 59.33 58.15 57.41 56.62 55.51 55.63 55.92 56.24
69.29 68.74 68.41 68.26 68.03 66.68 66.26 66.25 65.53 64.54 64.42 64.63 63.32 63.22 63.98 65.04 65.05 65.45 66.01 65.59 65.67 64.98 64.27 64.08 63.70 63.52 63.38 63.81 64.92 65.16 65.20 65.03 64.42 63.43 61.67 60.19 58.88 57.77 57.18 56.95 56.28 56.38 55.47
69.71 68.87 68.68 68.28 68.04 67.36 66.70 66.43 65.67 64.16 63.99 64.91 62.26 63.00 59.79 62.78 63.96 64.32 65.12 64.38 64.14 63.93 62.74 62.35 61.80 62.03 62.39 62.60 60.88 62.82 62.94 64.15 64.64 64.22 63.02 61.10 59.76 58.93 58.08 57.22 56.35 55.71 55.88
69.09 69.17 68.93 68.63 68.34 67.80 66.32 66.49 65.83 64.32 62.78 64.21 64.12 61.99 58.28 57.31 60.23 62.20 61.41 61.73 61.52 60.96 59.40 58.61 58.35 58.63 59.04 60.01 59.88 59.54 59.09 60.05 61.93 63.63 63.04 62.30 61.12 59.34 59.02 58.49 57.39 56.59 56.95
67.38 66.56 66.76 67.05 67.28 67.20 66.46 66.39 66.45 65.46 64.52 62.51 63.42 62.82 63.53 62.57 58.53 56.85 60.38 60.34 58.93 57.80 56.88 56.46 57.14 57.20 56.86 57.52 56.83 55.51 56.02 57.49 60.10 62.03 63.02 62.53 62.75 60.86 60.23 59.28 58.68 57.94 57.47
66.76 65.83 65.85 65.84 65.67 66.12 66.14 65.91 65.98 65.54 64.77 63.59 63.43 63.05 61.69 61.73 59.84 57.56 55.54 58.06 59.04 56.30 55.09 54.78 54.70 54.89 55.03 54.96 54.06 53.61 53.77 56.65 58.73 60.03 61.26 62.09 61.66 62.43 61.46 60.48 57.48 56.35 55.99
67.60 67.22 67.18 66.21 65.75 65.50 65.08 65.17 65.50 65.33 64.72 64.43 64.25 63.72 60.89 59.14 57.83 57.30 55.93 56.23 57.00 56.09 54.13 53.39 52.67 52.27 52.37 52.85 51.18 51.24 52.28 54.21 55.77 57.49 59.16 60.61 60.77 60.64 60.31 58.33 58.32 56.99 56.25
64.62 64.86 65.74 65.13 65.39 65.74 65.50 65.49 65.23 64.87 64.56 63.48 63.03 62.50 62.71 61.87 60.93 59.63 58.21 56.64 56.04 55.79 53.02 50.93 50.33 50.29 50.22 50.30 50.00 49.92 51.59 53.44 54.68 56.62 59.41 58.74 56.64 56.12 55.95 56.07 56.04 54.39 53.23
59.95 61.25 61.11 61.77 63.03 63.65 63.48 64.01 63.96 63.69 63.57 62.86 62.59 62.17 60.31 58.30 58.88 57.93 56.92 56.47 52.81 52.50 52.15 50.69 48.40 47.31 46.61 47.16 48.44 49.84 51.16 52.67 52.97 53.64 54.32 53.72 52.21 51.56 52.11 51.83 50.45 49.72 49.60
57.03 57.54 58.28 58.86 59.91 60.47 61.24 62.04 62.74 62.54 62.05 60.49 58.62 57.73 55.17 53.69 54.17 54.01 53.73 54.26 53.65 49.25 49.79 48.41 46.89 45.56 45.61 45.89 45.91 46.85 46.37 49.07 50.19 50.17 49.90 49.64 49.36 49.39 48.54 47.97 47.56 47.50 47.36
54.94 55.71 56.38 56.93 57.34 57.57 57.73 59.18 56.73 54.84 53.50 51.91 52.33 50.95 50.12 50.33 50.99 51.19 51.39 51.18 51.07 50.82 48.99 46.61 43.29 44.05 44.59 44.41 44.37 43.66 43.75 44.28 46.30 47.36 47.25 47.04 46.95 46.80 46.41 45.96 45.56 45.30 45.27
51.62 52.88 52.86 53.88 54.25 54.68 54.21 53.27 52.83 51.90 50.57 50.52 51.17 50.49 49.60 49.95 48.34 48.05 48.33 48.88 49.39 49.37 46.90 40.43 42.12 42.01 42.93 43.69 44.05 44.75 44.02 43.53 43.34 43.71 44.19 44.05 43.84 43.74 43.74 43.63 43.70 43.57 43.59
49.15 49.18 50.13 50.99 50.73 51.01 52.51 52.03 49.81 50.18 50.04 49.81 49.03 48.23 46.35 46.33 46.15 46.90 47.64 47.43 47.86 47.89 46.56 41.88 40.52 40.47 41.59 41.87 42.19 42.11 41.05 41.81 41.88 40.70 42.16 42.43 42.56 42.18 41.67 41.53 41.46 41.51 41.44
47.34 47.55 47.79 47.98 48.13 48.05 49.39 50.79 51.03 50.54 49.79 49.18 47.94 46.90 45.45 45.84 45.09 45.01 45.29 44.08 43.74 43.33 45.10 42.30 38.69 40.24 40.29 41.13 40.55 40.83 39.47 39.13 38.73 37.29 37.88 37.98 38.36 38.91 39.07 39.41 39.52 39.80 40.66
46.05 45.94 45.86 45.52 45.48 45.83 46.37 47.00 48.15 47.63 46.82 45.70 45.45 45.41 44.90 44.77 43.55 43.11 42.44 42.54 42.72 42.55 42.83 41.74 40.07 39.68 39.89 39.50 39.19 37.53 36.52 36.84 35.92 37.34 36.82 35.76 36.55 37.49 38.19 38.63 38.41 38.14 38.48
44.47 44.46 44.34 44.23 44.33 44.43 44.11 45.15 45.64 44.67 43.51 41.89 41.62 41.27 41.32 41.23 42.07 41.78 42.02 41.11 41.58 41.16 41.17 40.80 38.64 38.32 37.41 36.62 35.92 34.61 32.77 33.22 33.95 33.42 33.07 34.13 33.79 34.57 35.55 37.58 37.04 36.75 36.93
43.35 43.52 43.20 43.29 42.78 42.35 41.22 42.46 43.45 42.77 42.31 41.22 40.10 39.97 39.91 40.11 40.11 40.19 39.57 39.30 39.66 39.35 37.97 38.12 37.04 36.34 33.93 33.56 32.88 31.90 31.15 30.44 29.21 33.25 31.44 31.56 33.36 32.41 34.19 34.27 36.39 35.96 37.18
42.43 41.71 41.39 41.43 40.90 41.29 41.71 41.98 41.75 39.43 37.44 36.60 36.24 36.97 37.55 38.61 39.42 37.87 38.62 38.15 37.37 37.56 37.70 35.91 33.70 32.32 31.55 32.30 32.06 30.64 29.90 29.80 29.02 31.98 30.73 29.85 32.29 31.09 33.91 35.25 35.76 35.37 36.49
40.52 39.80 38.45 39.66 40.06 40.37 41.21 40.62 39.38 37.75 37.75 37.70 37.56 37.15 35.78 35.37 35.00 35.07 33.90 33.57 33.29 33.40 33.79 34.35 33.66 32.41 32.87 32.70 32.75 32.17 30.96 30.41 31.25 31.59 31.21 28.19 31.81 30.38 32.70 33.04 34.73 34.62 37.00
37.05 36.77 38.18 38.61 38.48 38.72 40.05 39.50 37.29 35.87 34.36 33.94 34.32 35.13 34.84 33.80 34.60 35.15 33.29 31.89 31.91 32.23 35.21 36.05 35.77 35.56 35.15 35.07 34.53 32.50 30.97 30.15 29.14 28.70 30.53 28.17 30.15 29.22 30.85 30.99 31.40 33.70 35.00
35.77 36.49 35.89 37.78 38.49 37.46 38.51 37.64 36.35 34.11 32.62 32.14 33.50 33.13 34.58 35.23 33.69 33.12 32.10 30.93 28.95 29.52 30.16 30.53 30.56 31.19 34.02 32.30 33.70 31.50 31.19 27.66 28.76 28.35 29.28 27.89 28.87 27.28 25.59 30.36 30.08 30.89 31.02

GFSMA_sfc_wetblb_096.txt.gz
Wetbulb
62.25 61.99 66.61 67.00 66.05 65.82 65.68 64.99 64.59 63.57 63.39 62.71 61.79 59.17 57.86 58.08 59.57 60.30 62.03 63.96 66.27 67.52 67.82 67.32 65.48 64.06 63.57 62.49 61.65 60.94 60.75 60.22 60.75 60.24 60.31 60.21 60.21 60.23 60.18 60.34 60.63 60.87 60.82
62.88 62.61 63.40 65.33 65.02 66.06 65.32 64.18 62.98 62.13 61.81 62.06 61.77 60.09 58.23 58.38 59.43 60.27 61.28 62.13 64.80 66.10 67.20 67.86 67.86 66.38 64.91 64.24 62.78 61.56 61.02 60.37 60.45 59.65 59.65 59.26 59.20 59.13 58.97 59.23 59.35 59.58 59.95
61.86 63.26 63.29 63.37 63.37 63.35 62.80 62.68 61.93 61.33 60.13 60.44 59.45 59.97 58.87 57.60 59.91 61.08 61.36 61.41 62.01 63.27 65.61 67.41 67.80 67.81 66.69 65.67 65.06 63.55 62.13 61.35 60.44 59.79 59.11 58.55 58.21 57.95 57.79 57.56 57.77 58.14 58.78
64.34 63.20 62.66 62.02 62.83 62.42 61.77 61.44 61.16 60.56 59.71 59.34 58.95 59.37 59.69 58.70 58.81 59.91 61.15 61.59 61.86 62.05 63.30 66.14 67.78 67.82 67.23 66.83 66.39 65.92 64.13 62.42 61.56 60.63 59.61 58.59 57.98 57.52 57.02 56.75 56.90 57.03 57.68
65.57 64.27 63.74 62.56 61.63 61.71 61.51 61.92 60.94 60.42 59.68 59.72 60.44 60.22 60.43 60.48 60.99 62.60 61.30 61.55 61.62 61.77 61.41 63.23 64.29 65.46 66.39 66.79 66.82 66.41 65.75 64.31 62.87 61.86 60.78 59.53 58.27 57.59 57.14 56.68 56.20 56.24 57.22
65.81 65.06 64.55 64.05 62.11 61.58 61.27 61.40 61.10 60.96 60.19 59.94 61.45 60.25 59.74 60.81 61.62 61.25 61.44 62.57 62.15 61.87 61.32 61.38 61.48 61.93 63.38 65.78 66.14 66.13 66.09 65.24 64.35 63.05 62.09 61.09 59.54 58.32 57.57 56.98 56.07 56.22 56.40
66.57 65.54 65.18 64.84 64.32 62.54 62.03 61.90 61.62 60.89 60.18 60.57 59.06 59.03 59.76 60.76 60.89 61.36 61.86 61.62 61.43 61.12 60.20 59.35 58.93 58.78 60.38 63.50 64.93 65.27 65.58 65.43 64.83 63.91 63.37 61.98 60.46 59.10 58.20 57.59 57.04 56.84 55.89
67.46 66.55 65.45 65.11 64.87 64.03 63.41 62.92 62.14 60.82 60.82 61.26 58.57 58.23 56.27 58.56 60.29 61.22 60.96 60.14 58.16 58.54 58.12 57.22 56.21 56.50 57.29 59.06 58.88 60.98 60.86 62.24 64.11 64.64 63.26 63.31 61.72 60.28 59.71 58.71 57.65 57.26 56.12
66.81 66.82 66.03 65.03 64.82 64.50 63.51 63.38 62.86 61.40 59.58 60.40 60.71 58.63 54.82 54.20 56.44 57.86 57.39 57.38 56.60 54.56 53.84 53.96 54.29 54.85 55.09 56.11 56.41 55.67 57.16 58.50 60.64 62.42 63.52 62.67 62.95 61.57 60.87 59.63 58.98 57.84 56.64
65.80 65.78 65.66 65.48 64.97 64.60 63.73 63.08 63.76 62.05 61.15 59.76 60.40 60.88 59.89 58.95 54.76 53.64 56.49 55.48 54.32 53.99 52.71 52.78 53.16 53.18 53.10 53.34 54.02 53.73 55.34 57.60 59.74 61.01 61.97 62.17 62.08 63.05 61.93 60.95 60.17 59.10 58.08
65.77 65.15 65.12 64.87 64.54 64.44 64.42 64.13 63.21 63.20 62.51 60.94 60.55 59.34 58.62 58.16 57.98 55.34 53.61 53.44 53.87 51.56 51.07 50.84 50.86 50.19 51.08 50.44 48.54 51.40 53.69 56.11 57.99 59.14 59.89 61.06 61.25 62.19 63.05 62.13 60.77 58.81 57.53
65.24 65.11 65.09 64.60 64.44 64.16 63.91 63.60 63.75 63.27 62.02 61.79 61.51 61.56 59.57 57.82 56.75 55.62 54.71 55.04 52.54 51.24 49.53 48.57 48.98 47.69 48.23 48.40 49.26 51.42 53.15 54.29 55.56 57.01 58.49 60.41 61.13 61.43 61.85 60.99 59.69 58.83 57.85
60.65 63.12 64.03 63.47 63.33 63.99 64.07 64.40 63.52 63.28 63.31 62.79 62.50 61.84 61.27 60.19 59.98 58.16 55.84 54.36 52.04 50.73 47.41 46.64 46.34 45.81 46.93 46.79 47.65 50.77 53.29 54.92 56.16 57.95 59.71 59.24 58.29 58.56 58.97 58.82 57.88 56.51 55.16
58.71 59.08 58.57 58.96 60.01 61.50 62.59 62.93 62.98 63.19 63.00 62.47 61.85 60.98 60.43 59.25 58.63 58.18 56.15 54.01 51.39 51.11 48.85 46.01 44.45 43.71 46.06 46.68 48.57 48.64 50.27 52.98 54.06 54.95 55.43 54.57 54.16 54.35 54.00 53.28 52.09 51.35 50.55
54.59 54.88 56.07 56.40 57.01 57.88 58.37 60.03 60.85 61.65 61.75 61.11 60.69 59.63 56.47 54.27 54.42 54.20 54.32 54.11 53.16 49.13 49.08 46.30 42.61 44.73 45.19 45.00 45.99 45.62 45.56 49.82 50.67 50.77 51.03 50.89 50.54 50.09 49.76 49.33 48.83 48.21 47.83
52.56 53.12 54.08 54.49 54.79 54.89 54.75 55.35 56.42 55.16 55.30 53.51 53.34 52.49 50.80 50.88 50.90 51.29 50.81 51.12 50.96 50.85 47.67 44.36 42.19 43.29 43.85 43.84 44.90 43.41 44.27 44.93 47.09 48.29 48.11 47.58 47.54 47.49 47.10 46.72 46.29 46.03 46.15
48.01 49.59 50.14 50.68 51.24 51.53 51.89 52.56 52.89 52.76 52.30 51.24 51.24 50.44 49.61 49.58 48.15 47.00 46.71 47.14 48.04 48.76 45.86 39.59 41.37 41.63 42.19 42.59 43.09 43.15 43.00 42.55 41.65 44.44 45.13 44.51 44.44 44.64 44.68 44.76 44.76 44.49 44.31
45.75 45.67 46.68 47.69 47.95 47.97 49.14 50.96 49.92 50.54 50.16 49.85 49.04 47.83 46.63 46.61 45.27 46.13 46.61 45.99 46.41 46.13 45.15 40.16 39.72 39.57 40.63 41.25 41.27 39.85 40.27 41.65 39.75 42.60 43.41 43.33 43.13 42.80 42.35 42.12 41.91 41.81 41.55
44.79 44.38 44.67 44.42 44.48 44.95 45.71 46.81 49.41 49.63 49.27 48.41 47.77 46.25 45.18 45.50 44.55 44.16 41.85 40.48 41.09 41.74 42.65 39.34 36.56 39.60 39.33 39.66 39.35 38.15 36.82 34.77 36.30 38.66 38.79 38.78 39.30 39.30 39.32 39.62 39.61 39.58 40.37
42.75 42.50 42.60 42.62 42.62 43.14 43.48 44.19 46.11 46.07 44.90 44.60 44.80 44.90 44.73 44.42 42.83 40.37 39.70 38.81 39.34 38.58 38.89 38.93 38.34 38.15 37.59 36.59 36.38 34.63 32.47 32.97 31.78 35.55 36.68 36.35 36.89 37.40 37.85 38.14 38.13 37.70 38.03
41.62 41.61 41.87 41.54 41.66 41.30 41.77 42.07 42.80 41.54 40.69 40.57 40.64 40.49 39.65 40.98 42.98 41.18 39.03 37.11 38.26 37.81 37.34 36.15 37.27 35.65 33.62 33.49 32.35 30.99 29.07 28.58 28.64 29.06 28.25 29.35 29.99 30.44 31.75 37.29 36.93 36.90 36.82
40.58 40.89 40.62 40.74 40.05 41.41 42.09 43.12 42.88 39.51 39.37 37.94 36.23 36.53 38.96 40.43 40.95 42.00 41.76 41.40 39.72 36.93 35.00 37.47 31.43 31.98 31.82 29.54 29.00 27.75 26.29 23.42 23.96 28.81 27.42 27.15 29.16 28.28 30.49 31.26 37.70 36.67 36.87
39.23 38.37 38.44 39.20 39.87 40.91 42.01 42.60 42.22 38.85 37.44 36.21 35.82 36.26 37.37 38.74 37.26 35.84 39.09 39.25 39.17 39.85 38.23 34.25 32.40 29.08 27.84 28.70 28.42 25.66 26.19 23.86 23.54 27.72 27.24 26.00 28.12 27.51 30.05 33.50 36.68 35.77 36.33
38.97 38.63 35.44 36.83 39.06 40.27 41.94 41.55 40.37 36.91 36.70 36.61 36.53 35.97 34.12 33.02 34.28 32.42 31.97 30.07 29.52 31.55 32.49 32.58 29.07 29.10 29.36 29.47 29.49 28.08 27.36 26.76 27.57 27.72 27.66 22.07 27.34 27.24 28.88 29.39 35.87 35.18 36.23
36.07 35.28 37.11 36.85 37.76 38.58 41.06 40.32 37.14 34.65 33.89 33.08 32.81 32.51 31.82 30.99 36.05 36.65 31.21 29.45 29.44 30.03 36.29 37.20 36.55 36.70 36.58 36.48 33.18 29.06 25.12 23.66 23.53 25.58 27.23 25.28 25.52 25.55 27.76 28.30 29.04 34.40 34.76
35.13 36.26 35.68 37.26 38.53 36.95 39.80 39.50 36.59 32.63 30.60 29.47 30.15 31.37 36.33 32.47 35.92 36.03 30.14 28.33 27.55 28.08 28.74 28.14 27.66 32.19 31.80 32.31 34.78 27.96 25.81 18.38 20.30 21.27 25.95 21.64 22.93 23.16 19.56 26.90 28.02 28.57 29.01

GFSMA_sfc_wetblb_099.txt.gz
Wetbulb
64.95 66.08 65.45 65.72 65.11 64.98 65.01 63.99 64.04 63.53 62.09 61.51 60.63 57.96 56.53 56.67 58.22 61.81 61.91 63.85 66.94 68.55 68.21 67.18 65.44 64.60 63.74 62.96 62.22 61.58 61.07 60.93 61.10 60.75 60.53 60.50 60.53 60.38 60.47 60.82 60.98 60.89 60.93
61.32 62.75 65.54 65.55 64.70 64.68 64.84 64.00 63.21 61.60 61.68 61.22 60.58 58.80 57.20 57.03 57.73 58.38 61.02 62.12 65.01 66.73 68.09 68.23 67.79 66.24 65.15 64.21 62.96 61.87 61.33 60.74 60.86 60.18 59.84 59.66 59.36 59.06 59.12 59.34 59.64 59.99 60.46
61.30 61.11 64.11 63.75 63.79 64.30 64.09 62.72 60.91 59.82 58.91 59.21 58.89 59.15 57.36 56.25 57.64 59.33 60.17 60.40 62.35 63.68 65.99 67.51 68.03 68.10 66.87 66.04 65.12 63.64 62.38 61.51 60.93 60.10 59.57 59.02 58.54 58.14 57.81 57.98 58.29 58.70 58.94
62.14 61.40 61.59 61.85 62.14 61.70 60.59 60.36 59.94 59.20 58.52 57.70 57.38 57.89 57.73 56.68 57.15 58.33 59.72 59.99 60.29 61.02 63.12 66.15 67.98 67.88 67.42 67.01 66.83 66.32 64.62 62.88 61.88 61.13 60.10 59.18 58.61 57.99 57.36 57.25 57.30 57.67 58.29
63.66 62.40 62.14 60.90 61.05 60.75 60.24 60.62 59.62 59.18 58.26 57.86 58.60 58.68 58.86 58.91 58.63 60.15 59.78 60.10 60.22 60.70 60.40 62.67 64.14 65.46 66.28 66.86 66.55 66.71 65.94 64.78 63.38 62.45 61.66 60.62 59.31 58.46 57.64 57.06 56.50 56.90 57.83
64.24 63.36 63.05 62.73 60.37 60.29 60.21 60.36 59.78 59.38 59.02 59.00 60.43 59.64 58.76 59.46 59.99 60.02 60.63 61.14 60.83 60.87 60.26 61.07 61.14 61.55 63.13 65.52 66.01 66.33 66.12 65.17 64.64 63.77 62.95 61.97 60.49 59.09 58.51 57.89 57.14 57.10 56.89
64.60 63.95 63.81 63.12 61.22 60.59 60.51 60.83 60.79 60.14 59.31 59.56 58.75 58.51 59.24 59.74 59.57 60.18 60.55 60.57 60.67 61.57 59.47 58.63 59.35 58.69 58.79 63.19 64.12 64.78 65.00 65.27 64.74 64.36 64.19 63.24 62.05 60.39 59.41 58.87 57.91 57.79 56.81
65.63 64.74 64.10 63.83 63.54 61.70 61.13 61.04 60.71 59.88 59.92 60.05 58.10 57.06 55.31 57.32 58.93 59.58 59.78 59.89 57.71 58.42 55.53 54.85 54.55 54.47 56.03 56.44 57.79 59.00 60.18 61.29 62.13 63.27 63.33 63.52 63.36 61.85 60.75 60.01 59.24 58.77 57.70
66.39 65.90 64.93 64.77 64.12 64.05 62.63 62.24 61.66 60.57 58.94 59.32 59.31 57.48 53.39 53.35 54.91 57.01 56.50 56.19 56.01 53.78 52.07 52.83 53.24 54.42 53.50 53.17 53.28 53.97 57.17 58.86 60.30 61.26 61.97 62.81 62.85 63.36 62.04 61.55 60.23 59.37 58.25
65.69 65.93 65.73 65.28 64.84 64.84 63.99 63.15 63.41 62.16 60.70 59.11 60.10 60.62 58.82 57.47 55.46 54.74 56.44 54.49 53.88 52.06 51.15 51.58 51.29 51.51 51.12 50.12 51.54 53.55 55.14 57.41 59.34 60.45 60.90 61.30 61.90 62.50 63.58 62.71 61.24 60.26 58.69
65.14 65.02 64.79 64.64 64.46 64.16 63.95 63.70 63.45 62.71 62.31 61.14 60.66 59.25 58.60 58.34 58.14 55.93 54.38 53.91 52.34 49.83 49.57 49.36 48.69 48.63 49.08 47.90 48.37 51.04 53.95 55.68 57.56 58.51 59.41 60.37 61.30 62.44 62.91 63.42 62.38 60.98 59.80
64.01 64.80 64.26 63.68 63.25 63.42 63.19 63.38 63.47 63.14 63.01 62.56 61.48 60.64 58.58 57.23 56.36 55.74 54.70 54.54 54.00 50.67 48.92 48.60 47.81 46.44 46.66 46.95 49.99 51.37 53.57 54.46 55.49 57.33 59.34 60.06 61.14 61.52 61.68 62.36 62.09 60.92 59.24
59.50 62.95 63.67 63.26 62.64 63.13 63.12 63.29 62.77 62.00 61.95 61.08 60.99 61.11 61.49 59.85 59.01 57.86 56.17 54.62 52.69 48.05 46.50 45.02 44.22 44.61 46.68 46.55 48.46 50.73 53.77 56.38 57.71 58.80 59.92 59.44 59.85 60.04 59.99 60.18 59.83 58.70 57.54
58.29 60.54 60.18 60.52 61.25 62.18 62.64 62.50 61.74 62.05 61.53 61.18 61.17 61.22 60.52 59.87 59.52 58.41 56.69 54.48 51.69 50.15 48.51 45.10 42.78 43.89 46.15 47.06 48.50 48.54 50.08 52.80 54.03 55.27 55.92 56.13 56.27 55.58 55.22 55.03 54.62 53.67 52.55
54.56 54.29 55.46 55.58 55.93 56.75 57.00 57.72 58.31 58.92 59.35 60.14 59.93 59.57 58.62 57.14 56.69 56.41 55.91 55.47 53.48 48.76 49.14 44.27 42.79 44.69 45.04 45.42 46.38 45.84 46.74 50.47 51.06 51.68 51.81 51.23 51.13 50.98 50.94 50.81 50.20 49.68 49.12
52.33 52.98 53.30 53.46 53.44 53.42 53.18 53.84 54.15 53.98 55.66 55.02 55.15 56.25 53.76 52.58 52.91 52.90 51.98 52.94 52.61 52.09 48.66 44.89 42.30 43.24 44.44 43.53 45.47 44.03 44.77 46.05 48.49 49.33 48.71 48.07 47.97 48.03 47.83 47.69 47.51 47.28 47.35
48.65 48.90 49.46 50.04 50.04 50.28 51.10 50.98 51.35 52.37 53.19 52.53 52.23 52.14 50.95 50.82 49.64 47.98 48.93 49.14 49.31 50.10 47.24 40.03 41.44 42.42 42.69 42.65 43.12 43.09 43.55 42.23 42.94 45.73 46.35 45.72 45.17 45.49 45.63 45.82 45.91 45.60 45.38
45.32 45.73 46.33 46.96 46.93 47.02 47.63 49.22 49.06 49.27 51.24 51.05 50.60 49.57 48.34 48.19 47.44 47.27 47.38 46.86 45.50 47.26 45.64 40.31 39.71 39.87 40.70 42.08 41.93 40.34 40.11 41.28 40.04 43.69 44.77 44.62 44.32 43.91 43.53 43.08 42.73 42.40 42.07
44.25 44.58 44.32 43.51 43.56 43.75 44.11 45.08 47.59 49.77 49.06 49.45 48.60 47.57 46.52 46.54 45.02 45.53 45.21 43.95 43.96 43.76 44.01 40.61 38.00 39.93 39.33 39.83 39.58 39.55 38.14 35.06 36.20 39.90 40.16 40.21 40.24 40.02 40.23 40.48 40.20 40.21 40.89
42.36 41.83 41.53 41.84 41.77 42.41 42.20 42.82 44.34 45.96 46.03 45.82 46.12 45.85 45.50 45.32 44.36 43.48 42.55 41.60 39.48 39.13 40.29 39.50 38.19 37.95 38.13 38.75 38.61 34.20 32.25 32.84 31.18 34.56 36.34 36.15 37.11 37.93 38.21 38.61 38.53 38.07 38.27
41.24 40.60 40.56 40.86 40.44 40.35 41.56 41.19 41.63 41.55 42.20 41.56 41.36 41.29 41.74 43.08 43.85 42.73 40.87 37.75 37.72 36.87 36.34 38.17 37.44 36.94 35.40 33.32 32.93 31.64 30.59 28.71 28.27 28.34 28.15 28.44 29.14 28.97 30.35 37.57 36.86 37.52 37.28
39.53 39.91 39.66 39.87 39.23 40.85 42.49 43.51 42.18 38.97 38.76 37.74 36.64 37.79 39.56 41.83 42.61 43.77 42.56 41.89 39.59 36.43 34.44 32.23 33.83 29.55 30.97 30.90 29.18 28.55 27.23 23.85 24.21 28.31 26.91 26.38 28.14 27.35 29.11 29.90 38.39 37.45 37.12
37.82 36.88 36.71 37.76 37.54 38.48 42.24 42.75 42.69 40.12 38.57 37.13 35.99 36.13 36.88 38.60 38.59 38.05 40.88 40.60 40.99 41.29 39.39 35.72 33.84 31.67 28.55 28.84 28.37 26.26 25.98 24.26 23.83 27.55 26.86 25.88 27.01 26.73 28.63 32.15 37.17 36.37 36.50
36.25 36.37 35.97 35.36 35.97 39.04 42.17 42.41 40.85 37.48 37.53 37.40 37.20 37.08 36.60 34.07 33.77 33.03 30.31 29.55 30.32 31.83 31.19 32.15 30.29 28.99 29.24 29.52 29.66 28.46 27.12 26.36 27.06 27.45 27.01 22.02 26.13 26.81 28.06 28.78 36.41 35.57 36.04
36.85 37.02 36.76 34.46 34.59 37.63 41.97 40.89 38.48 36.18 35.54 35.09 35.36 34.99 34.12 32.31 37.13 36.94 30.08 29.16 28.80 30.53 36.66 37.15 36.41 36.81 36.46 35.76 32.58 28.39 25.51 25.13 23.64 25.40 26.65 24.77 24.24 24.52 26.34 27.38 28.33 35.05 35.59
35.91 35.63 34.43 35.18 37.98 37.50 40.86 40.06 36.70 33.80 31.99 31.21 31.79 32.58 36.43 33.07 37.56 37.22 29.73 28.96 27.46 28.13 29.22 28.87 30.07 32.46 32.26 33.95 34.60 28.99 26.77 19.89 21.00 21.30 25.48 21.61 22.13 22.28 18.51 25.38 27.05 27.38 28.16